| time (UTC) | temp F | wind direction | speed MPH | gust MPH | rain 1hr in | rain 24hr in | rain mn in | humidity % | barometer mb |
| 20260502232742 | 46 | 294 | 0.0 | 2.0 | 0.00 | 0.00 | 0.00 | 49 | 1015.6 |
| 20260502232637 | 46 | 357 | 1.0 | 2.0 | 0.00 | 0.00 | 0.00 | 49 | 1015.9 |
| 20260502232531 | 46 | 291 | 1.0 | 2.0 | 0.00 | 0.00 | 0.00 | 49 | 1015.9 |
| 20260502232425 | 46 | 286 | 0.0 | 3.0 | 0.00 | 0.00 | 0.00 | 48 | 1015.6 |
| 20260502232359 | 46 | 298 | 0.0 | 3.0 | 0.00 | 0.00 | 0.00 | 50 | 1015.6 |
| 20260502232319 | 46 | 298 | 0.0 | 3.0 | 0.00 | 0.00 | 0.00 | 49 | 1015.6 |
| 20260502232214 | 46 | 336 | 1.0 | 3.0 | 0.00 | 0.00 | 0.00 | 48 | 1015.6 |
| 20260502232109 | 46 | 282 | 0.0 | 3.0 | 0.00 | 0.00 | 0.00 | 48 | 1015.9 |
| 20260502232003 | 46 | 270 | 0.0 | 4.0 | 0.00 | 0.00 | 0.00 | 49 | 1015.6 |
| 20260502231856 | 46 | 260 | 0.0 | 4.0 | 0.00 | 0.00 | 0.00 | 49 | 1015.6 |
| 20260502231751 | 46 | 261 | 0.0 | 4.0 | 0.00 | 0.00 | 0.00 | 47 | 1015.6 |
| 20260502231646 | 46 | 256 | 0.0 | 4.0 | 0.00 | 0.00 | 0.00 | 47 | 1015.6 |
| 20260502231539 | 46 | 261 | 0.0 | 4.0 | 0.00 | 0.00 | 0.00 | 47 | 1015.6 |
| 20260502231434 | 46 | 345 | 0.0 | 6.0 | 0.00 | 0.00 | 0.00 | 48 | 1015.6 |
| 20260502231346 | 46 | 311 | 0.0 | 6.0 | 0.00 | 0.00 | 0.00 | 48 | 1015.6 |
| 20260502231329 | 46 | 334 | 2.0 | 6.0 | 0.00 | 0.00 | 0.00 | 47 | 1015.6 |
| 20260502231223 | 46 | 330 | 1.0 | 6.0 | 0.00 | 0.00 | 0.00 | 48 | 1015.6 |
| 20260502231117 | 46 | 317 | 2.0 | 6.0 | 0.00 | 0.00 | 0.00 | 47 | 1015.9 |
| 20260502231011 | 46 | 327 | 1.0 | 6.0 | 0.00 | 0.00 | 0.00 | 47 | 1015.6 |
| 20260502230906 | 46 | 270 | 0.0 | 6.0 | 0.00 | 0.00 | 0.00 | 48 | 1015.6 |
| 20260502230839 | 46 | 270 | 0.0 | 6.0 | 0.00 | 0.00 | 0.00 | 47 | 1015.6 |
| 20260502230800 | 46 | 315 | 1.0 | 6.0 | 0.00 | 0.00 | 0.00 | 48 | 1015.6 |
| 20260502230654 | 46 | 275 | 1.0 | 6.0 | 0.00 | 0.00 | 0.00 | 47 | 1015.6 |
| 20260502230549 | 46 | 349 | 2.0 | 6.0 | 0.00 | 0.00 | 0.00 | 46 | 1015.6 |
| 20260502230455 | 46 | 88 | 3.0 | 4.0 | 0.00 | 0.00 | 0.00 | 48 | 1015.6 |
| 20260502230337 | 46 | 5 | 0.0 | 3.0 | 0.00 | 0.00 | 0.00 | 49 | 1015.6 |
| 20260502230232 | 46 | 345 | 0.0 | 3.0 | 0.00 | 0.00 | 0.00 | 50 | 1015.6 |
| 20260502230126 | 46 | 226 | 1.0 | 3.0 | 0.00 | 0.00 | 0.00 | 50 | 1015.6 |
| 20260502230021 | 46 | 315 | 1.0 | 3.0 | 0.00 | 0.00 | 0.00 | 48 | 1015.6 |
| 20260502225915 | 46 | 321 | 0.0 | 4.0 | 0.00 | 0.00 | 0.00 | 48 | 1015.6 |
| 20260502225827 | 46 | 292 | 1.0 | 6.0 | 0.00 | 0.00 | 0.00 | 47 | 1015.6 |
| 20260502225810 | 46 | 275 | 1.0 | 6.0 | 0.00 | 0.00 | 0.00 | 47 | 1015.6 |
| 20260502225704 | 46 | 274 | 0.0 | 6.0 | 0.00 | 0.00 | 0.00 | 47 | 1015.6 |
| 20260502225600 | 46 | 257 | 0.0 | 6.0 | 0.00 | 0.00 | 0.00 | 48 | 1015.6 |
| 20260502225551 | 46 | 328 | 1.0 | 6.0 | 0.00 | 0.00 | 0.00 | 48 | 1015.6 |
| 20260502225545 | 46 | 287 | 1.0 | 6.0 | 0.00 | 0.00 | 0.00 | 49 | 1015.6 |
| 20260502225536 | 46 | 345 | 2.0 | 6.0 | 0.00 | 0.00 | 0.00 | 47 | 1015.6 |
| 20260502225240 | 46 | 253 | 1.0 | 6.0 | 0.00 | 0.00 | 0.00 | 48 | 1015.6 |
| 20260502225134 | 46 | 197 | 0.0 | 9.0 | 0.00 | 0.00 | 0.00 | 48 | 1015.6 |
| 20260502225029 | 47 | 323 | 3.0 | 9.0 | 0.00 | 0.00 | 0.00 | 47 | 1015.6 |
| 20260502224922 | 47 | 334 | 3.0 | 9.0 | 0.00 | 0.00 | 0.00 | 46 | 1015.9 |
| 20260502224817 | 47 | 286 | 1.0 | 9.0 | 0.00 | 0.00 | 0.00 | 49 | 1015.6 |
| 20260502224712 | 47 | 139 | 0.0 | 9.0 | 0.00 | 0.00 | 0.00 | 49 | 1015.6 |
| 20260502224606 | 47 | 346 | 2.0 | 9.0 | 0.00 | 0.00 | 0.00 | 47 | 1015.6 |
| 20260502224539 | 47 | 326 | 1.0 | 9.0 | 0.00 | 0.00 | 0.00 | 47 | 1015.9 |
| 20260502224535 | 47 | 263 | 4.0 | 9.0 | 0.00 | 0.00 | 0.00 | 47 | 1015.6 |
| 20260502224527 | 47 | 246 | 2.0 | 9.0 | 0.00 | 0.00 | 0.00 | 48 | 1015.9 |
| 20260502224248 | 47 | 257 | 6.0 | 9.0 | 0.00 | 0.00 | 0.00 | 47 | 1015.9 |
| 20260502224142 | 47 | 267 | 2.0 | 7.0 | 0.00 | 0.00 | 0.00 | 47 | 1015.6 |
| 20260502224038 | 47 | 334 | 3.0 | 7.0 | 0.00 | 0.00 | 0.00 | 48 | 1015.6 |
| 20260502223931 | 46 | 346 | 0.0 | 7.0 | 0.00 | 0.00 | 0.00 | 48 | 1015.6 |
| 20260502223825 | 46 | 291 | 0.0 | 7.0 | 0.00 | 0.00 | 0.00 | 47 | 1015.9 |
| 20260502223759 | 46 | 293 | 1.0 | 7.0 | 0.00 | 0.00 | 0.00 | 47 | 1015.9 |
| 20260502223720 | 46 | 329 | 2.0 | 7.0 | 0.00 | 0.00 | 0.00 | 47 | 1015.6 |
| 20260502223613 | 47 | 1 | 1.0 | 7.0 | 0.00 | 0.00 | 0.00 | 47 | 1015.6 |
| 20260502223507 | 47 | 327 | 2.0 | 7.0 | 0.00 | 0.00 | 0.00 | 46 | 1015.6 |
| 20260502223402 | 47 | 338 | 2.0 | 7.0 | 0.00 | 0.00 | 0.00 | 48 | 1015.6 |
| 20260502223256 | 47 | 296 | 2.0 | 7.0 | 0.00 | 0.00 | 0.00 | 47 | 1015.6 |
| 20260502223151 | 47 | 329 | 2.0 | 7.0 | 0.00 | 0.00 | 0.00 | 48 | 1015.6 |
| 20260502223045 | 47 | 91 | 2.0 | 7.0 | 0.00 | 0.00 | 0.00 | 47 | 1015.6 |
| 20260502222939 | 47 | 358 | 0.0 | 7.0 | 0.00 | 0.00 | 0.00 | 49 | 1015.6 |
| 20260502222833 | 46 | 223 | 1.0 | 7.0 | 0.00 | 0.00 | 0.00 | 49 | 1015.9 |
| 20260502222746 | 46 | 295 | 0.0 | 7.0 | 0.00 | 0.00 | 0.00 | 48 | 1015.9 |
| 20260502222728 | 46 | 276 | 0.0 | 7.0 | 0.00 | 0.00 | 0.00 | 49 | 1015.6 |
| 20260502222623 | 46 | 262 | 3.0 | 7.0 | 0.00 | 0.00 | 0.00 | 48 | 1015.6 |
| 20260502222516 | 46 | 332 | 0.0 | 4.0 | 0.00 | 0.00 | 0.00 | 49 | 1015.6 |
| 20260502222410 | 46 | 314 | 0.0 | 6.0 | 0.00 | 0.00 | 0.00 | 48 | 1015.6 |
| 20260502222305 | 46 | 210 | 0.0 | 6.0 | 0.00 | 0.00 | 0.00 | 49 | 1015.6 |
| 20260502222238 | 46 | 234 | 1.0 | 6.0 | 0.00 | 0.00 | 0.00 | 48 | 1015.6 |
| 20260502222159 | 46 | 345 | 2.0 | 6.0 | 0.00 | 0.00 | 0.00 | 49 | 1015.6 |
| 20260502222053 | 46 | 252 | 1.0 | 6.0 | 0.00 | 0.00 | 0.00 | 48 | 1015.9 |
| 20260502221958 | 46 | 301 | 3.0 | 6.0 | 0.00 | 0.00 | 0.00 | 49 | 1015.9 |
| 20260502221840 | 46 | 273 | 2.0 | 6.0 | 0.00 | 0.00 | 0.00 | 48 | 1015.6 |
| 20260502221735 | 46 | 5 | 0.0 | 6.0 | 0.00 | 0.00 | 0.00 | 48 | 1015.9 |
| 20260502221629 | 46 | 330 | 2.0 | 6.0 | 0.00 | 0.00 | 0.00 | 47 | 1015.9 |
| 20260502221524 | 46 | 331 | 2.0 | 6.0 | 0.00 | 0.00 | 0.00 | 47 | 1015.9 |
| 20260502221418 | 46 | 330 | 2.0 | 3.0 | 0.00 | 0.00 | 0.00 | 47 | 1015.9 |
| 20260502221325 | 47 | 334 | 2.0 | 3.0 | 0.00 | 0.00 | 0.00 | 47 | 1015.9 |
| 20260502221225 | 47 | 323 | 2.0 | 3.0 | 0.00 | 0.00 | 0.00 | 47 | 1015.6 |
| 20260502221206 | 47 | 98 | 0.0 | 4.0 | 0.00 | 0.00 | 0.00 | 48 | 1015.6 |
| 20260502221101 | 46 | 85 | 1.0 | 4.0 | 0.00 | 0.00 | 0.00 | 47 | 1015.6 |
| 20260502220956 | 46 | 241 | 1.0 | 9.0 | 0.00 | 0.00 | 0.00 | 48 | 1015.9 |
| 20260502220850 | 46 | 296 | 1.0 | 9.0 | 0.00 | 0.00 | 0.00 | 48 | 1015.9 |
| 20260502220743 | 46 | 326 | 1.0 | 9.0 | 0.00 | 0.00 | 0.00 | 48 | 1015.6 |
| 20260502220717 | 46 | 231 | 1.0 | 9.0 | 0.00 | 0.00 | 0.00 | 48 | 1015.6 |
| 20260502220638 | 46 | 244 | 1.0 | 9.0 | 0.00 | 0.00 | 0.00 | 47 | 1015.6 |
| 20260502220532 | 46 | 281 | 2.0 | 9.0 | 0.00 | 0.00 | 0.00 | 48 | 1015.9 |
| 20260502220428 | 46 | 158 | 0.0 | 9.0 | 0.00 | 0.00 | 0.00 | 48 | 1015.9 |
| 20260502220322 | 46 | 303 | 2.0 | 9.0 | 0.00 | 0.00 | 0.00 | 47 | 1015.9 |
| 20260502220216 | 46 | 352 | 2.0 | 9.0 | 0.00 | 0.00 | 0.00 | 47 | 1015.9 |
| 20260502220112 | 46 | 213 | 6.0 | 9.0 | 0.00 | 0.00 | 0.00 | 47 | 1015.9 |
| 20260502220006 | 46 | 329 | 2.0 | 6.0 | 0.00 | 0.00 | 0.00 | 49 | 1015.9 |
| 20260502215859 | 46 | 308 | 1.0 | 6.0 | 0.00 | 0.00 | 0.00 | 48 | 1015.9 |
| 20260502215754 | 46 | 330 | 4.0 | 8.0 | 0.00 | 0.00 | 0.00 | 47 | 1015.9 |
| 20260502215705 | 46 | 336 | 4.0 | 8.0 | 0.00 | 0.00 | 0.00 | 47 | 1015.6 |
| 20260502215648 | 46 | 20 | 4.0 | 8.0 | 0.00 | 0.00 | 0.00 | 47 | 1015.6 |
| 20260502215542 | 46 | 286 | 1.0 | 8.0 | 0.00 | 0.00 | 0.00 | 49 | 1015.6 |
| 20260502215436 | 46 | 260 | 2.0 | 8.0 | 0.00 | 0.00 | 0.00 | 49 | 1015.9 |
| 20260502215332 | 46 | 329 | 5.0 | 8.0 | 0.00 | 0.00 | 0.00 | 47 | 1015.6 |
| 20260502215226 | 46 | 318 | 4.0 | 8.0 | 0.00 | 0.00 | 0.00 | 47 | 1015.6 |
| 20260502215159 | 46 | 335 | 0.0 | 8.0 | 0.00 | 0.00 | 0.00 | 49 | 1015.6 |
| 20260502215120 | 46 | 318 | 2.0 | 8.0 | 0.00 | 0.00 | 0.00 | 48 | 1015.9 |
| 20260502215015 | 46 | 319 | 4.0 | 8.0 | 0.00 | 0.00 | 0.00 | 48 | 1015.6 |
| 20260502214931 | 46 | 314 | 2.0 | 8.0 | 0.00 | 0.00 | 0.00 | 48 | 1015.9 |
| 20260502214922 | 46 | 323 | 6.0 | 8.0 | 0.00 | 0.00 | 0.00 | 48 | 1015.9 |
| 20260502214912 | 46 | 320 | 3.0 | 7.0 | 0.00 | 0.00 | 0.00 | 48 | 1015.9 |
| 20260502214554 | 46 | 253 | 1.0 | 7.0 | 0.00 | 0.00 | 0.00 | 48 | 1015.6 |
| 20260502214448 | 46 | 327 | 2.0 | 7.0 | 0.00 | 0.00 | 0.00 | 47 | 1016.3 |
| 20260502214342 | 46 | 290 | 2.0 | 10.0 | 0.00 | 0.00 | 0.00 | 47 | 1015.9 |
| 20260502214237 | 46 | 337 | 5.0 | 10.0 | 0.00 | 0.00 | 0.00 | 47 | 1015.9 |
| 20260502214148 | 46 | 287 | 1.0 | 10.0 | 0.00 | 0.00 | 0.00 | 50 | 1015.9 |
| 20260502214131 | 46 | 308 | 2.0 | 10.0 | 0.00 | 0.00 | 0.00 | 49 | 1015.9 |
| 20260502214025 | 46 | 239 | 0.0 | 10.0 | 0.00 | 0.00 | 0.00 | 48 | 1015.6 |
| 20260502213920 | 46 | 37 | 2.0 | 10.0 | 0.00 | 0.00 | 0.00 | 47 | 1015.6 |
| 20260502213814 | 46 | 333 | 0.0 | 10.0 | 0.00 | 0.00 | 0.00 | 47 | 1015.9 |
| 20260502213708 | 46 | 269 | 2.0 | 10.0 | 0.00 | 0.00 | 0.00 | 48 | 1015.9 |
| 20260502213641 | 46 | 269 | 2.0 | 10.0 | 0.00 | 0.00 | 0.00 | 48 | 1015.9 |
| 20260502213603 | 47 | 327 | 1.0 | 10.0 | 0.00 | 0.00 | 0.00 | 49 | 1015.6 |
| 20260502213457 | 47 | 198 | 6.0 | 10.0 | 0.00 | 0.00 | 0.00 | 47 | 1015.6 |
| 20260502213351 | 47 | 296 | 2.0 | 8.0 | 0.00 | 0.00 | 0.00 | 49 | 1015.6 |
| 20260502213245 | 47 | 320 | 1.0 | 8.0 | 0.00 | 0.00 | 0.00 | 50 | 1015.6 |
| 20260502213140 | 47 | 314 | 2.0 | 8.0 | 0.00 | 0.00 | 0.00 | 48 | 1015.6 |
| 20260502213035 | 47 | 226 | 4.0 | 7.0 | 0.00 | 0.00 | 0.00 | 47 | 1015.6 |
| 20260502212928 | 47 | 249 | 0.0 | 7.0 | 0.00 | 0.00 | 0.00 | 48 | 1015.6 |
| 20260502212823 | 47 | 191 | 2.0 | 7.0 | 0.00 | 0.00 | 0.00 | 47 | 1015.6 |
| 20260502212718 | 47 | 249 | 1.0 | 7.0 | 0.00 | 0.00 | 0.00 | 49 | 1015.6 |
| 20260502212630 | 47 | 172 | 0.0 | 7.0 | 0.00 | 0.00 | 0.00 | 47 | 1015.6 |
| 20260502212613 | 47 | 304 | 1.0 | 7.0 | 0.00 | 0.00 | 0.00 | 48 | 1015.6 |
| 20260502212506 | 46 | 248 | 1.0 | 7.0 | 0.00 | 0.00 | 0.00 | 48 | 1015.6 |
| 20260502212400 | 46 | 274 | 1.0 | 7.0 | 0.00 | 0.00 | 0.00 | 49 | 1015.6 |
| 20260502212255 | 46 | 239 | 2.0 | 7.0 | 0.00 | 0.00 | 0.00 | 47 | 1015.9 |
| 20260502212150 | 47 | 320 | 2.0 | 6.0 | 0.00 | 0.00 | 0.00 | 48 | 1015.6 |
| 20260502212123 | 47 | 298 | 1.0 | 6.0 | 0.00 | 0.00 | 0.00 | 47 | 1015.6 |
| 20260502212044 | 47 | 276 | 4.0 | 6.0 | 0.00 | 0.00 | 0.00 | 47 | 1015.6 |
| 20260502211939 | 47 | 257 | 3.0 | 6.0 | 0.00 | 0.00 | 0.00 | 47 | 1015.9 |
| 20260502211833 | 47 | 304 | 2.0 | 6.0 | 0.00 | 0.00 | 0.00 | 48 | 1015.6 |
| 20260502211726 | 47 | 346 | 3.0 | 7.0 | 0.00 | 0.00 | 0.00 | 47 | 1015.6 |
| 20260502211620 | 47 | 8 | 2.0 | 7.0 | 0.00 | 0.00 | 0.00 | 50 | 1015.9 |
| 20260502211515 | 47 | 250 | 0.0 | 7.0 | 0.00 | 0.00 | 0.00 | 48 | 1015.6 |
| 20260502211410 | 47 | 330 | 2.0 | 7.0 | 0.00 | 0.00 | 0.00 | 49 | 1015.6 |
| 20260502211305 | 46 | 296 | 3.0 | 7.0 | 0.00 | 0.00 | 0.00 | 48 | 1015.9 |
| 20260502211159 | 46 | 76 | 1.0 | 7.0 | 0.00 | 0.00 | 0.00 | 49 | 1015.9 |
| 20260502211111 | 46 | 325 | 1.0 | 7.0 | 0.00 | 0.00 | 0.00 | 50 | 1015.9 |
| 20260502211053 | 46 | 315 | 3.0 | 7.0 | 0.00 | 0.00 | 0.00 | 49 | 1015.9 |
| 20260502210947 | 46 | 214 | 3.0 | 7.0 | 0.00 | 0.00 | 0.00 | 48 | 1015.6 |
| 20260502210841 | 46 | 265 | 2.0 | 7.0 | 0.00 | 0.00 | 0.00 | 48 | 1015.6 |
| 20260502210736 | 46 | 272 | 4.0 | 6.0 | 0.00 | 0.00 | 0.00 | 48 | 1015.9 |
| 20260502210630 | 46 | 272 | 2.0 | 6.0 | 0.00 | 0.00 | 0.00 | 49 | 1015.9 |
| 20260502210603 | 46 | 325 | 2.0 | 6.0 | 0.00 | 0.00 | 0.00 | 49 | 1015.9 |
| 20260502210524 | 46 | 329 | 2.0 | 6.0 | 0.00 | 0.00 | 0.00 | 49 | 1015.6 |
| 20260502210418 | 46 | 45 | 4.0 | 6.0 | 0.00 | 0.00 | 0.00 | 49 | 1015.6 |
| 20260502210314 | 46 | 330 | 3.0 | 4.0 | 0.00 | 0.00 | 0.00 | 49 | 1015.9 |
| 20260502210207 | 46 | 323 | 0.0 | 4.0 | 0.00 | 0.00 | 0.00 | 49 | 1015.9 |
| 20260502210110 | 46 | 319 | 1.0 | 7.0 | 0.00 | 0.00 | 0.00 | 48 | 1015.9 |
| 20260502205956 | 46 | 244 | 1.0 | 7.0 | 0.00 | 0.00 | 0.00 | 49 | 1015.9 |
| 20260502205850 | 46 | 302 | 1.0 | 7.0 | 0.00 | 0.00 | 0.00 | 49 | 1015.9 |
| 20260502205745 | 46 | 222 | 2.0 | 7.0 | 0.00 | 0.00 | 0.00 | 50 | 1015.9 |
| 20260502205639 | 46 | 249 | 1.0 | 7.0 | 0.00 | 0.00 | 0.00 | 51 | 1016.3 |
| 20260502205551 | 46 | 27 | 2.0 | 7.0 | 0.00 | 0.00 | 0.00 | 50 | 1015.9 |
| 20260502205534 | 46 | 282 | 0.0 | 7.0 | 0.00 | 0.00 | 0.00 | 49 | 1015.9 |
| 20260502205428 | 46 | 296 | 1.0 | 7.0 | 0.00 | 0.00 | 0.00 | 50 | 1015.9 |
| 20260502205322 | 46 | 252 | 1.0 | 7.0 | 0.00 | 0.00 | 0.00 | 49 | 1015.9 |
| 20260502205218 | 46 | 261 | 2.0 | 7.0 | 0.00 | 0.00 | 0.00 | 48 | 1015.9 |
| 20260502205111 | 46 | 180 | 1.0 | 6.0 | 0.00 | 0.00 | 0.00 | 50 | 1015.9 |
| 20260502205045 | 46 | 287 | 2.0 | 6.0 | 0.00 | 0.00 | 0.00 | 49 | 1015.9 |
| 20260502205005 | 46 | 246 | 2.0 | 6.0 | 0.00 | 0.00 | 0.00 | 49 | 1015.9 |
| 20260502204900 | 46 | 240 | 2.0 | 6.0 | 0.00 | 0.00 | 0.00 | 52 | 1015.9 |
| 20260502204754 | 46 | 227 | 1.0 | 6.0 | 0.00 | 0.00 | 0.00 | 51 | 1015.9 |
| 20260502204648 | 46 | 313 | 2.0 | 9.0 | 0.00 | 0.00 | 0.00 | 49 | 1015.9 |
| 20260502204543 | 46 | 340 | 3.0 | 9.0 | 0.00 | 0.00 | 0.00 | 50 | 1015.6 |
| 20260502204437 | 46 | 317 | 2.0 | 9.0 | 0.00 | 0.00 | 0.00 | 49 | 1015.9 |
| 20260502204332 | 46 | 345 | 4.0 | 9.0 | 0.00 | 0.00 | 0.00 | 49 | 1016.3 |
| 20260502204226 | 46 | 333 | 3.0 | 9.0 | 0.00 | 0.00 | 0.00 | 49 | 1015.9 |
| 20260502204120 | 46 | 256 | 0.0 | 9.0 | 0.00 | 0.00 | 0.00 | 50 | 1016.3 |
| 20260502204031 | 46 | 229 | 1.0 | 9.0 | 0.00 | 0.00 | 0.00 | 50 | 1016.3 |
| 20260502204015 | 46 | 229 | 1.0 | 9.0 | 0.00 | 0.00 | 0.00 | 50 | 1015.9 |
| 20260502203908 | 46 | 273 | 4.0 | 9.0 | 0.00 | 0.00 | 0.00 | 50 | 1015.9 |
| 20260502203801 | 46 | 226 | 4.0 | 9.0 | 0.00 | 0.00 | 0.00 | 50 | 1015.9 |
| 20260502203656 | 46 | 299 | 3.0 | 8.0 | 0.00 | 0.00 | 0.00 | 49 | 1016.3 |
| 20260502203550 | 46 | 307 | 2.0 | 8.0 | 0.00 | 0.00 | 0.00 | 48 | 1015.9 |
| 20260502203524 | 46 | 327 | 4.0 | 8.0 | 0.00 | 0.00 | 0.00 | 48 | 1016.3 |
| 20260502203445 | 46 | 357 | 2.0 | 8.0 | 0.00 | 0.00 | 0.00 | 49 | 1016.3 |
| 20260502203346 | 46 | 276 | 3.0 | 8.0 | 0.00 | 0.00 | 0.00 | 49 | 1016.3 |
| 20260502203240 | 45 | 201 | 1.0 | 8.0 | 0.00 | 0.00 | 0.00 | 50 | 1016.3 |
| 20260502203133 | 45 | 332 | 1.0 | 8.0 | 0.00 | 0.00 | 0.00 | 48 | 1016.3 |
| 20260502203026 | 46 | 328 | 2.0 | 8.0 | 0.00 | 0.00 | 0.00 | 48 | 1015.9 |
| 20260502202922 | 46 | 335 | 5.0 | 8.0 | 0.00 | 0.00 | 0.00 | 48 | 1015.9 |
| 20260502202815 | 46 | 321 | 3.0 | 7.0 | 0.00 | 0.00 | 0.00 | 51 | 1016.3 |
| 20260502202711 | 46 | 8 | 1.0 | 7.0 | 0.00 | 0.00 | 0.00 | 50 | 1015.9 |
| 20260502202605 | 46 | 340 | 2.0 | 10.0 | 0.00 | 0.00 | 0.00 | 50 | 1016.3 |
| 20260502202516 | 46 | 330 | 4.0 | 10.0 | 0.00 | 0.00 | 0.00 | 50 | 1016.3 |
| 20260502202459 | 46 | 340 | 1.0 | 10.0 | 0.00 | 0.00 | 0.00 | 49 | 1016.3 |
| 20260502202353 | 46 | 66 | 0.0 | 10.0 | 0.00 | 0.00 | 0.00 | 50 | 1015.9 |
| 20260502202247 | 46 | 257 | 0.0 | 10.0 | 0.00 | 0.00 | 0.00 | 50 | 1016.3 |
| 20260502202141 | 46 | 229 | 4.0 | 10.0 | 0.00 | 0.00 | 0.00 | 50 | 1015.9 |
| 20260502202035 | 46 | 230 | 1.0 | 10.0 | 0.00 | 0.00 | 0.00 | 49 | 1016.3 |
| 20260502202009 | 46 | 202 | 2.0 | 10.0 | 0.00 | 0.00 | 0.00 | 49 | 1015.9 |
| 20260502201929 | 46 | 239 | 5.0 | 10.0 | 0.00 | 0.00 | 0.00 | 49 | 1016.3 |
| 20260502201824 | 46 | 83 | 0.0 | 10.0 | 0.00 | 0.00 | 0.00 | 49 | 1016.3 |
| 20260502201718 | 46 | 121 | 3.0 | 10.0 | 0.00 | 0.00 | 0.00 | 49 | 1015.9 |
| 20260502201612 | 46 | 269 | 6.0 | 10.0 | 0.00 | 0.00 | 0.00 | 48 | 1015.9 |
| 20260502201506 | 46 | 204 | 1.0 | 8.0 | 0.00 | 0.00 | 0.00 | 49 | 1016.3 |
| 20260502201401 | 46 | 221 | 1.0 | 8.0 | 0.00 | 0.00 | 0.00 | 49 | 1016.3 |
| 20260502201255 | 46 | 171 | 1.0 | 8.0 | 0.00 | 0.00 | 0.00 | 48 | 1015.9 |
| 20260502201149 | 46 | 249 | 1.0 | 8.0 | 0.00 | 0.00 | 0.00 | 47 | 1016.3 |
| 20260502201043 | 46 | 230 | 1.0 | 7.0 | 0.00 | 0.00 | 0.00 | 48 | 1016.3 |
| 20260502200956 | 46 | 156 | 2.0 | 7.0 | 0.00 | 0.00 | 0.00 | 49 | 1015.9 |
| 20260502200938 | 46 | 244 | 2.0 | 7.0 | 0.00 | 0.00 | 0.00 | 49 | 1015.9 |
| 20260502200833 | 47 | 257 | 2.0 | 7.0 | 0.00 | 0.00 | 0.00 | 49 | 1016.3 |
| 20260502200727 | 47 | 226 | 1.0 | 9.0 | 0.00 | 0.00 | 0.00 | 48 | 1016.3 |
| 20260502200622 | 47 | 278 | 6.0 | 9.0 | 0.00 | 0.00 | 0.00 | 48 | 1016.3 |
| 20260502200515 | 47 | 216 | 0.0 | 9.0 | 0.00 | 0.00 | 0.00 | 48 | 1016.3 |
| 20260502200448 | 47 | 93 | 2.0 | 9.0 | 0.00 | 0.00 | 0.00 | 49 | 1016.3 |
| 20260502200409 | 47 | 255 | 5.0 | 9.0 | 0.00 | 0.00 | 0.00 | 48 | 1016.3 |
| 20260502200303 | 46 | 303 | 1.0 | 9.0 | 0.00 | 0.00 | 0.00 | 49 | 1016.3 |
| 20260502200158 | 46 | 215 | 4.0 | 9.0 | 0.00 | 0.00 | 0.00 | 50 | 1016.3 |
| 20260502195946 | 45 | 218 | 3.0 | 9.0 | 0.00 | 0.00 | 0.00 | 50 | 1016.3 |
| 20260502195841 | 46 | 251 | 3.0 | 9.0 | 0.00 | 0.00 | 0.00 | 49 | 1016.3 |
| 20260502195736 | 46 | 253 | 4.0 | 7.0 | 0.00 | 0.00 | 0.00 | 48 | 1016.3 |
| 20260502195632 | 46 | 285 | 0.0 | 7.0 | 0.00 | 0.00 | 0.00 | 50 | 1016.3 |
| 20260502195528 | 45 | 307 | 0.0 | 7.0 | 0.00 | 0.00 | 0.00 | 50 | 1016.6 |
| 20260502195439 | 45 | 247 | 2.0 | 7.0 | 0.00 | 0.00 | 0.00 | 48 | 1016.6 |
| 20260502195422 | 45 | 319 | 4.0 | 7.0 | 0.00 | 0.00 | 0.00 | 48 | 1016.3 |
| 20260502195316 | 45 | 208 | 2.0 | 7.0 | 0.00 | 0.00 | 0.00 | 48 | 1016.6 |
| 20260502195210 | 46 | 278 | 3.0 | 7.0 | 0.00 | 0.00 | 0.00 | 50 | 1016.6 |
| 20260502195106 | 46 | 280 | 2.0 | 7.0 | 0.00 | 0.00 | 0.00 | 49 | 1016.6 |
| 20260502195000 | 46 | 258 | 2.0 | 7.0 | 0.00 | 0.00 | 0.00 | 50 | 1016.3 |
| 20260502194934 | 46 | 351 | 3.0 | 7.0 | 0.00 | 0.00 | 0.00 | 49 | 1016.3 |
| 20260502194855 | 46 | 130 | 1.0 | 7.0 | 0.00 | 0.00 | 0.00 | 48 | 1016.3 |
| 20260502194749 | 46 | 221 | 3.0 | 7.0 | 0.00 | 0.00 | 0.00 | 48 | 1016.3 |
| 20260502194644 | 46 | 232 | 3.0 | 7.0 | 0.00 | 0.00 | 0.00 | 48 | 1016.6 |
| 20260502194538 | 46 | 344 | 5.0 | 7.0 | 0.00 | 0.00 | 0.00 | 49 | 1016.6 |
| 20260502194432 | 46 | 303 | 2.0 | 7.0 | 0.00 | 0.00 | 0.00 | 50 | 1016.3 |
| 20260502194326 | 46 | 41 | 2.0 | 7.0 | 0.00 | 0.00 | 0.00 | 48 | 1016.3 |
| 20260502194221 | 46 | 338 | 0.0 | 9.0 | 0.00 | 0.00 | 0.00 | 48 | 1016.6 |
| 20260502194129 | 46 | 252 | 0.0 | 9.0 | 0.00 | 0.00 | 0.00 | 49 | 1016.6 |
| 20260502194010 | 45 | 349 | 0.0 | 9.0 | 0.00 | 0.00 | 0.00 | 48 | 1016.6 |
| 20260502193922 | 45 | 351 | 0.0 | 9.0 | 0.00 | 0.00 | 0.00 | 48 | 1016.6 |
| 20260502193905 | 45 | 349 | 0.0 | 9.0 | 0.00 | 0.00 | 0.00 | 48 | 1016.6 |
| 20260502193759 | 45 | 344 | 0.0 | 9.0 | 0.00 | 0.00 | 0.00 | 48 | 1016.6 |
| 20260502193654 | 45 | 337 | 4.0 | 9.0 | 0.00 | 0.00 | 0.00 | 48 | 1016.3 |
| 20260502193549 | 45 | 330 | 3.0 | 9.0 | 0.00 | 0.00 | 0.00 | 48 | 1016.3 |
| 20260502193443 | 46 | 325 | 5.0 | 9.0 | 0.00 | 0.00 | 0.00 | 48 | 1016.6 |
| 20260502193417 | 46 | 1 | 5.0 | 9.0 | 0.00 | 0.00 | 0.00 | 47 | 1016.6 |
| 20260502193337 | 46 | 329 | 5.0 | 9.0 | 0.00 | 0.00 | 0.00 | 47 | 1016.6 |
| 20260502193232 | 46 | 334 | 4.0 | 8.0 | 0.00 | 0.00 | 0.00 | 47 | 1016.6 |
| 20260502193126 | 46 | 319 | 2.0 | 8.0 | 0.00 | 0.00 | 0.00 | 46 | 1016.6 |
| 20260502193022 | 46 | 322 | 0.0 | 8.0 | 0.00 | 0.00 | 0.00 | 49 | 1016.6 |
| 20260502192915 | 46 | 337 | 3.0 | 8.0 | 0.00 | 0.00 | 0.00 | 48 | 1016.3 |
| 20260502192810 | 46 | 322 | 5.0 | 8.0 | 0.00 | 0.00 | 0.00 | 47 | 1016.6 |
| 20260502192706 | 46 | 349 | 3.0 | 7.0 | 0.00 | 0.00 | 0.00 | 47 | 1016.6 |
| 20260502192600 | 46 | 343 | 2.0 | 7.0 | 0.00 | 0.00 | 0.00 | 48 | 1016.6 |
| 20260502192454 | 46 | 304 | 4.0 | 7.0 | 0.00 | 0.00 | 0.00 | 48 | 1016.6 |
| 20260502192406 | 46 | 326 | 4.0 | 7.0 | 0.00 | 0.00 | 0.00 | 49 | 1016.6 |
| 20260502192349 | 46 | 320 | 0.0 | 7.0 | 0.00 | 0.00 | 0.00 | 50 | 1016.6 |
| 20260502192243 | 46 | 15 | 3.0 | 7.0 | 0.00 | 0.00 | 0.00 | 48 | 1016.3 |
| 20260502192137 | 46 | 240 | 5.0 | 7.0 | 0.00 | 0.00 | 0.00 | 48 | 1016.6 |
| 20260502192033 | 47 | 297 | 3.0 | 6.0 | 0.00 | 0.00 | 0.00 | 48 | 1016.6 |
| 20260502191927 | 47 | 91 | 3.0 | 10.0 | 0.00 | 0.00 | 0.00 | 49 | 1016.6 |
| 20260502191902 | 47 | 294 | 1.0 | 10.0 | 0.00 | 0.00 | 0.00 | 48 | 1016.6 |
| 20260502191822 | 47 | 232 | 2.0 | 10.0 | 0.00 | 0.00 | 0.00 | 48 | 1016.6 |
| 20260502191716 | 47 | 277 | 1.0 | 10.0 | 0.00 | 0.00 | 0.00 | 47 | 1016.6 |
| 20260502191610 | 47 | 243 | 2.0 | 10.0 | 0.00 | 0.00 | 0.00 | 48 | 1016.6 |
| 20260502191505 | 47 | 259 | 0.0 | 10.0 | 0.00 | 0.00 | 0.00 | 47 | 1016.9 |
| 20260502191359 | 47 | 356 | 2.0 | 10.0 | 0.00 | 0.00 | 0.00 | 47 | 1016.6 |
| 20260502191254 | 47 | 238 | 2.0 | 10.0 | 0.00 | 0.00 | 0.00 | 46 | 1016.6 |
| 20260502191148 | 48 | 345 | 2.0 | 10.0 | 0.00 | 0.00 | 0.00 | 45 | 1016.6 |
| 20260502191043 | 48 | 267 | 2.0 | 10.0 | 0.00 | 0.00 | 0.00 | 45 | 1016.9 |
| 20260502190937 | 48 | 285 | 2.0 | 6.0 | 0.00 | 0.00 | 0.00 | 45 | 1016.9 |
| 20260502190914 | 46 | 331 | 3.0 | 7.0 | 0.00 | 0.00 | 0.00 | 48 | 1016.9 |
| 20260502190908 | 48 | 290 | 2.0 | 6.0 | 0.00 | 0.00 | 0.00 | 48 | 1016.6 |
| 20260502190904 | 48 | 204 | 2.0 | 6.0 | 0.00 | 0.00 | 0.00 | 47 | 1016.6 |
| 20260502190856 | 47 | 277 | 3.0 | 6.0 | 0.00 | 0.00 | 0.00 | 48 | 1016.6 |
| 20260502190633 | 47 | 49 | 1.0 | 6.0 | 0.00 | 0.00 | 0.00 | 49 | 1016.9 |
| 20260502190625 | 46 | 276 | 3.0 | 6.0 | 0.00 | 0.00 | 0.00 | 49 | 1016.9 |
| 20260502190603 | 46 | 246 | 2.0 | 7.0 | 0.00 | 0.00 | 0.00 | 47 | 1016.9 |
| 20260502190318 | 46 | 335 | 4.0 | 7.0 | 0.00 | 0.00 | 0.00 | 48 | 1016.6 |
| 20260502190159 | 46 | 41 | 4.0 | 7.0 | 0.00 | 0.00 | 0.00 | 49 | 1016.9 |
| 20260502190131 | 46 | 201 | 0.0 | 7.0 | 0.00 | 0.00 | 0.00 | 49 | 1016.9 |
| 20260502190127 | 46 | 274 | 3.0 | 7.0 | 0.00 | 0.00 | 0.00 | 50 | 1016.9 |
| 20260502190118 | 46 | 220 | 3.0 | 7.0 | 0.00 | 0.00 | 0.00 | 48 | 1016.6 |
| 20260502190055 | 46 | 201 | 0.0 | 7.0 | 0.00 | 0.00 | 0.00 | 49 | 1016.9 |
| 20260502185738 | 46 | 263 | 0.0 | 7.0 | 0.00 | 0.00 | 0.00 | 49 | 1016.9 |
| 20260502185632 | 46 | 292 | 0.0 | 7.0 | 0.00 | 0.00 | 0.00 | 48 | 1016.6 |
| 20260502185527 | 46 | 345 | 5.0 | 7.0 | 0.00 | 0.00 | 0.00 | 47 | 1016.9 |
| 20260502185421 | 47 | 302 | 2.0 | 7.0 | 0.00 | 0.00 | 0.00 | 45 | 1016.9 |
| 20260502185408 | 45 | 215 | 4.0 | 13.0 | 0.00 | 0.00 | 0.00 | 50 | 1016.9 |
| 20260502185402 | 47 | 301 | 1.0 | 7.0 | 0.00 | 0.00 | 0.00 | 46 | 1016.9 |
| 20260502185358 | 47 | 89 | 1.0 | 7.0 | 0.00 | 0.00 | 0.00 | 46 | 1016.6 |
| 20260502185349 | 47 | 286 | 5.0 | 7.0 | 0.00 | 0.00 | 0.00 | 46 | 1016.9 |
| 20260502185127 | 46 | 329 | 4.0 | 8.0 | 0.00 | 0.00 | 0.00 | 46 | 1016.9 |
| 20260502185123 | 46 | 302 | 4.0 | 8.0 | 0.00 | 0.00 | 0.00 | 47 | 1016.9 |
| 20260502185119 | 47 | 195 | 1.0 | 7.0 | 0.00 | 0.00 | 0.00 | 45 | 1016.9 |
| 20260502185111 | 46 | 207 | 1.0 | 8.0 | 0.00 | 0.00 | 0.00 | 45 | 1016.9 |
| 20260502185102 | 46 | 333 | 4.0 | 8.0 | 0.00 | 0.00 | 0.00 | 46 | 1016.6 |
| 20260502184841 | 46 | 286 | 4.0 | 8.0 | 0.00 | 0.00 | 0.00 | 46 | 1016.9 |
| 20260502184832 | 46 | 265 | 4.0 | 8.0 | 0.00 | 0.00 | 0.00 | 45 | 1016.9 |
| 20260502184607 | 46 | 246 | 3.0 | 8.0 | 0.00 | 0.00 | 0.00 | 47 | 1016.9 |
| 20260502184559 | 46 | 242 | 6.0 | 8.0 | 0.00 | 0.00 | 0.00 | 46 | 1016.6 |
| 20260502184549 | 46 | 302 | 4.0 | 8.0 | 0.00 | 0.00 | 0.00 | 47 | 1016.9 |
| 20260502184328 | 45 | 306 | 4.0 | 13.0 | 0.00 | 0.00 | 0.00 | 49 | 1016.9 |
| 20260502184320 | 45 | 149 | 2.0 | 13.0 | 0.00 | 0.00 | 0.00 | 51 | 1016.9 |
| 20260502184100 | 47 | 269 | 3.0 | 11.0 | 0.00 | 0.00 | 0.00 | 45 | 1016.6 |
| 20260502184056 | 45 | 291 | 3.0 | 13.0 | 0.00 | 0.00 | 0.00 | 49 | 1016.9 |
| 20260502184048 | 45 | 325 | 4.0 | 13.0 | 0.00 | 0.00 | 0.00 | 51 | 1016.9 |
| 20260502183826 | 45 | 256 | 3.0 | 13.0 | 0.00 | 0.00 | 0.00 | 50 | 1016.9 |
| 20260502183818 | 45 | 241 | 4.0 | 13.0 | 0.00 | 0.00 | 0.00 | 49 | 1016.9 |
| 20260502183551 | 45 | 302 | 3.0 | 13.0 | 0.00 | 0.00 | 0.00 | 49 | 1016.6 |
| 20260502183542 | 45 | 341 | 0.0 | 13.0 | 0.00 | 0.00 | 0.00 | 50 | 1016.9 |
| 20260502183534 | 46 | 306 | 4.0 | 13.0 | 0.00 | 0.00 | 0.00 | 48 | 1016.9 |
| 20260502183313 | 46 | 287 | 10.0 | 13.0 | 0.00 | 0.00 | 0.00 | 48 | 1016.9 |
| 20260502183309 | 46 | 326 | 3.0 | 10.0 | 0.00 | 0.00 | 0.00 | 50 | 1016.9 |
| 20260502183300 | 46 | 354 | 1.0 | 10.0 | 0.00 | 0.00 | 0.00 | 49 | 1016.6 |
| 20260502183041 | 46 | 327 | 4.0 | 11.0 | 0.00 | 0.00 | 0.00 | 48 | 1016.9 |
| 20260502183033 | 47 | 0 | 4.0 | 11.0 | 0.00 | 0.00 | 0.00 | 48 | 1016.6 |
| 20260502183022 | 47 | 269 | 3.0 | 11.0 | 0.00 | 0.00 | 0.00 | 45 | 1016.6 |
| 20260502182705 | 47 | 8 | 0.0 | 11.0 | 0.00 | 0.00 | 0.00 | 45 | 1016.6 |
| 20260502182559 | 46 | 315 | 2.0 | 11.0 | 0.00 | 0.00 | 0.00 | 44 | 1016.9 |
| 20260502182452 | 45 | 245 | 1.0 | 11.0 | 0.00 | 0.00 | 0.00 | 46 | 1016.9 |
| 20260502182347 | 45 | 252 | 0.0 | 11.0 | 0.00 | 0.00 | 0.00 | 46 | 1016.9 |
| 20260502182259 | 45 | 321 | 2.0 | 11.0 | 0.00 | 0.00 | 0.00 | 47 | 1016.9 |
| 20260502182242 | 46 | 288 | 2.0 | 11.0 | 0.00 | 0.00 | 0.00 | 46 | 1016.9 |
| 20260502182136 | 46 | 255 | 2.0 | 11.0 | 0.00 | 0.00 | 0.00 | 46 | 1016.9 |
| 20260502182030 | 46 | 221 | 3.0 | 11.0 | 0.00 | 0.00 | 0.00 | 47 | 1016.9 |
| 20260502181924 | 46 | 234 | 2.0 | 11.0 | 0.00 | 0.00 | 0.00 | 48 | 1016.9 |
| 20260502181818 | 46 | 242 | 3.0 | 11.0 | 0.00 | 0.00 | 0.00 | 48 | 1016.9 |
| 20260502181752 | 45 | 261 | 2.0 | 11.0 | 0.00 | 0.00 | 0.00 | 47 | 1016.9 |
| 20260502181713 | 45 | 323 | 7.0 | 11.0 | 0.00 | 0.00 | 0.00 | 46 | 1016.9 |
| 20260502181606 | 45 | 325 | 2.0 | 8.0 | 0.00 | 0.00 | 0.00 | 47 | 1016.9 |
| 20260502181502 | 45 | 22 | 6.0 | 8.0 | 0.00 | 0.00 | 0.00 | 47 | 1016.9 |
| 20260502181356 | 45 | 26 | 2.0 | 7.0 | 0.00 | 0.00 | 0.00 | 48 | 1016.9 |
| 20260502181249 | 45 | 331 | 2.0 | 7.0 | 0.00 | 0.00 | 0.00 | 47 | 1016.9 |
| 20260502181145 | 45 | 292 | 4.0 | 7.0 | 0.00 | 0.00 | 0.00 | 47 | 1016.9 |
| 20260502181039 | 46 | 299 | 4.0 | 7.0 | 0.00 | 0.00 | 0.00 | 47 | 1016.9 |
| 20260502180933 | 46 | 240 | 0.0 | 6.0 | 0.00 | 0.00 | 0.00 | 47 | 1016.9 |
| 20260502180828 | 46 | 266 | 3.0 | 6.0 | 0.00 | 0.00 | 0.00 | 48 | 1016.9 |
| 20260502180739 | 46 | 266 | 2.0 | 6.0 | 0.00 | 0.00 | 0.00 | 46 | 1016.9 |
| 20260502180722 | 46 | 6 | 2.0 | 6.0 | 0.00 | 0.00 | 0.00 | 46 | 1016.9 |
| 20260502180617 | 46 | 312 | 2.0 | 7.0 | 0.00 | 0.00 | 0.00 | 49 | 1016.9 |
| 20260502180511 | 46 | 237 | 4.0 | 7.0 | 0.00 | 0.00 | 0.00 | 46 | 1016.9 |
| 20260502180405 | 46 | 311 | 2.0 | 7.0 | 0.00 | 0.00 | 0.00 | 46 | 1016.9 |
| 20260502180300 | 46 | 235 | 0.0 | 7.0 | 0.00 | 0.00 | 0.00 | 47 | 1016.9 |
| 20260502180234 | 46 | 286 | 2.0 | 7.0 | 0.00 | 0.00 | 0.00 | 47 | 1016.9 |
| 20260502180155 | 46 | 290 | 1.0 | 7.0 | 0.00 | 0.00 | 0.00 | 45 | 1016.9 |
| 20260502180103 | 46 | 305 | 1.0 | 7.0 | 0.00 | 0.00 | 0.00 | 46 | 1016.9 |
| 20260502170505 | 47 | 350 | 2.0 | 6.0 | 0.00 | 0.00 | 0.00 | 46 | 1016.9 |
| 20260502170359 | 47 | 232 | 2.0 | 6.0 | 0.00 | 0.00 | 0.00 | 44 | 1016.9 |
| 20260502170253 | 48 | 204 | 5.0 | 6.0 | 0.00 | 0.00 | 0.00 | 43 | 1017.3 |
| 20260502170148 | 48 | 200 | 1.0 | 6.0 | 0.00 | 0.00 | 0.00 | 42 | 1016.9 |
| 20260502170122 | 48 | 238 | 2.0 | 6.0 | 0.00 | 0.00 | 0.00 | 45 | 1017.7 |
| 20260502164313 | 47 | 266 | 2.0 | 9.0 | 0.00 | 0.00 | 0.00 | 46 | 1017.3 |
| 20260502164209 | 47 | 266 | 6.0 | 9.0 | 0.00 | 0.00 | 0.00 | 44 | 1017.3 |
| 20260502164103 | 47 | 1 | 2.0 | 7.0 | 0.00 | 0.00 | 0.00 | 50 | 1017.3 |
| 20260502163957 | 46 | 236 | 1.0 | 7.0 | 0.00 | 0.00 | 0.00 | 47 | 1017.3 |
| 20260502163851 | 44 | 276 | 2.0 | 8.0 | 0.00 | 0.00 | 0.00 | 48 | 1017.3 |
| 20260502163746 | 44 | 246 | 2.0 | 8.0 | 0.00 | 0.00 | 0.00 | 48 | 1017.3 |
| 20260502163641 | 45 | 61 | 2.0 | 8.0 | 0.00 | 0.00 | 0.00 | 47 | 1017.7 |
| 20260502163553 | 45 | 277 | 3.0 | 8.0 | 0.00 | 0.00 | 0.00 | 47 | 1017.7 |
| 20260502163536 | 45 | 323 | 6.0 | 8.0 | 0.00 | 0.00 | 0.00 | 47 | 1017.7 |
| 20260502163430 | 46 | 336 | 5.0 | 8.0 | 0.00 | 0.00 | 0.00 | 47 | 1017.3 |
| 20260502163325 | 46 | 340 | 2.0 | 8.0 | 0.00 | 0.00 | 0.00 | 46 | 1017.3 |
| 20260502163219 | 45 | 213 | 2.0 | 8.0 | 0.00 | 0.00 | 0.00 | 51 | 1017.3 |
| 20260502163113 | 44 | 244 | 2.0 | 8.0 | 0.00 | 0.00 | 0.00 | 50 | 1017.3 |
| 20260502163048 | 44 | 184 | 1.0 | 8.0 | 0.00 | 0.00 | 0.00 | 51 | 1017.3 |
| 20260502163008 | 44 | 322 | 4.0 | 8.0 | 0.00 | 0.00 | 0.00 | 48 | 1017.7 |
| 20260502162903 | 43 | 146 | 0.0 | 7.0 | 0.00 | 0.00 | 0.00 | 49 | 1017.3 |
| 20260502162757 | 43 | 333 | 2.0 | 8.0 | 0.00 | 0.00 | 0.00 | 49 | 1017.3 |
| 20260502162653 | 43 | 243 | 3.0 | 13.0 | 0.00 | 0.00 | 0.00 | 52 | 1017.7 |
| 20260502162547 | 43 | 251 | 4.0 | 13.0 | 0.00 | 0.00 | 0.00 | 49 | 1017.3 |
| 20260502162441 | 43 | 249 | 3.0 | 13.0 | 0.00 | 0.00 | 0.00 | 48 | 1017.7 |
| 20260502162336 | 43 | 281 | 1.0 | 13.0 | 0.00 | 0.00 | 0.00 | 50 | 1017.7 |
| 20260502162242 | 0 | 0.0 | 0.0 | 0.00 | 0.00 | 0.00 | |||
| 20260502162238 | 42 | 321 | 4.0 | 6.0 | 0.00 | 0.00 | 0.00 | 52 | 1017.7 |
| 20260502162234 | 43 | 342 | 2.0 | 13.0 | 0.00 | 0.00 | 0.00 | 49 | 1017.7 |
| 20260502162225 | 45 | 251 | 1.0 | 6.0 | 0.00 | 0.00 | 0.00 | 50 | 1017.7 |
| 20260502162221 | 44 | 220 | 3.0 | 6.0 | 0.00 | 0.00 | 0.00 | 51 | 1017.3 |
| 20260502162217 | 46 | 245 | 2.0 | 7.0 | 0.00 | 0.00 | 0.00 | 47 | 1017.3 |
| 20260502162212 | 43 | 334 | 7.0 | 11.0 | 0.00 | 0.00 | 0.00 | 53 | 1017.3 |
| 20260502162208 | 43 | 271 | 4.0 | 11.0 | 0.00 | 0.00 | 0.00 | 51 | 1017.7 |
| 20260502162204 | 44 | 228 | 0.0 | 9.0 | 0.00 | 0.00 | 0.00 | 52 | 1017.7 |
| 20260502162200 | 43 | 333 | 0.0 | 13.0 | 0.00 | 0.00 | 0.00 | 49 | 1017.3 |
| 20260502162150 | 43 | 351 | 4.0 | 13.0 | 0.00 | 0.00 | 0.00 | 49 | 1017.3 |
| 20260502162146 | 43 | 315 | 5.0 | 13.0 | 0.00 | 0.00 | 0.00 | 49 | 1017.3 |
| 20260502161925 | 44 | 301 | 1.0 | 13.0 | 0.00 | 0.00 | 0.00 | 49 | 1017.7 |
| 20260502161915 | 44 | 302 | 6.0 | 13.0 | 0.00 | 0.00 | 0.00 | 48 | 1017.3 |
| 20260502161907 | 44 | 327 | 1.0 | 6.0 | 0.00 | 0.00 | 0.00 | 48 | 1017.7 |
| 20260502161648 | 45 | 311 | 3.0 | 6.0 | 0.00 | 0.00 | 0.00 | 46 | 1017.7 |
| 20260502161637 | 45 | 339 | 1.0 | 6.0 | 0.00 | 0.00 | 0.00 | 46 | 1017.7 |
| 20260502161633 | 45 | 224 | 0.0 | 6.0 | 0.00 | 0.00 | 0.00 | 46 | 1017.7 |
| 20260502161412 | 46 | 340 | 2.0 | 6.0 | 0.00 | 0.00 | 0.00 | 45 | 1017.3 |
| 20260502161404 | 46 | 331 | 4.0 | 7.0 | 0.00 | 0.00 | 0.00 | 48 | 1017.7 |
| 20260502161355 | 46 | 29 | 3.0 | 7.0 | 0.00 | 0.00 | 0.00 | 45 | 1017.3 |
| 20260502161345 | 46 | 245 | 2.0 | 7.0 | 0.00 | 0.00 | 0.00 | 47 | 1017.3 |
| 20260502161126 | 45 | 30 | 0.0 | 8.0 | 0.00 | 0.00 | 0.00 | 46 | 1017.7 |
| 20260502160905 | 42 | 358 | 5.0 | 8.0 | 0.00 | 0.00 | 0.00 | 51 | 1017.7 |
| 20260502160901 | 44 | 25 | 2.0 | 8.0 | 0.00 | 0.00 | 0.00 | 48 | 1017.7 |
| 20260502160852 | 42 | 301 | 0.0 | 8.0 | 0.00 | 0.00 | 0.00 | 51 | 1017.7 |
| 20260502160844 | 42 | 262 | 0.0 | 8.0 | 0.00 | 0.00 | 0.00 | 52 | 1017.7 |
| 20260502160619 | 42 | 358 | 5.0 | 8.0 | 0.00 | 0.00 | 0.00 | 51 | 1017.7 |
| 20260502160357 | 42 | 337 | 4.0 | 8.0 | 0.00 | 0.00 | 0.00 | 52 | 1017.7 |
| 20260502160348 | 42 | 305 | 3.0 | 8.0 | 0.00 | 0.00 | 0.00 | 52 | 1017.7 |
| 20260502160340 | 42 | 325 | 2.0 | 11.0 | 0.00 | 0.00 | 0.00 | 52 | 1017.3 |
| 20260502160332 | 43 | 329 | 5.0 | 11.0 | 0.00 | 0.00 | 0.00 | 52 | 1017.7 |
| 20260502160109 | 43 | 257 | 3.0 | 11.0 | 0.00 | 0.00 | 0.00 | 54 | 1017.3 |
| 20260502152244 | 44 | 330 | 2.0 | 6.0 | 0.00 | 0.00 | 0.00 | 53 | 1017.7 |
| 20260502152236 | 44 | 340 | 2.0 | 6.0 | 0.00 | 0.00 | 0.00 | 52 | 1017.3 |
| 20260502152227 | 44 | 261 | 1.0 | 6.0 | 0.00 | 0.00 | 0.00 | 54 | 1017.7 |
| 20260502152001 | 45 | 307 | 2.0 | 6.0 | 0.00 | 0.00 | 0.00 | 53 | 1017.7 |
| 20260502151957 | 45 | 286 | 3.0 | 6.0 | 0.00 | 0.00 | 0.00 | 53 | 1017.3 |
| 20260502151948 | 46 | 303 | 4.0 | 6.0 | 0.00 | 0.00 | 0.00 | 52 | 1017.7 |
| 20260502151723 | 46 | 293 | 3.0 | 6.0 | 0.00 | 0.00 | 0.00 | 52 | 1017.3 |
| 20260502151715 | 46 | 323 | 1.0 | 6.0 | 0.00 | 0.00 | 0.00 | 50 | 1017.3 |
| 20260502151454 | 45 | 47 | 1.0 | 6.0 | 0.00 | 0.00 | 0.00 | 53 | 1017.3 |
| 20260502151443 | 45 | 42 | 1.0 | 6.0 | 0.00 | 0.00 | 0.00 | 53 | 1017.7 |
| 20260502151439 | 44 | 59 | 0.0 | 6.0 | 0.00 | 0.00 | 0.00 | 51 | 1017.7 |
| 20260502151431 | 44 | 344 | 3.0 | 6.0 | 0.00 | 0.00 | 0.00 | 51 | 1017.3 |
| 20260502151207 | 43 | 47 | 0.0 | 6.0 | 0.00 | 0.00 | 0.00 | 52 | 1017.7 |
| 20260502151158 | 43 | 3 | 2.0 | 6.0 | 0.00 | 0.00 | 0.00 | 52 | 1017.3 |
| 20260502151148 | 42 | 321 | 4.0 | 6.0 | 0.00 | 0.00 | 0.00 | 52 | 1017.7 |
| 20260502150927 | 42 | 8 | 2.0 | 6.0 | 0.00 | 0.00 | 0.00 | 54 | 1017.3 |
| 20260502150919 | 42 | 337 | 1.0 | 6.0 | 0.00 | 0.00 | 0.00 | 52 | 1017.3 |
| 20260502150654 | 42 | 314 | 2.0 | 6.0 | 0.00 | 0.00 | 0.00 | 53 | 1017.7 |
| 20260502150645 | 43 | 356 | 2.0 | 6.0 | 0.00 | 0.00 | 0.00 | 52 | 1017.3 |
| 20260502150424 | 43 | 332 | 4.0 | 6.0 | 0.00 | 0.00 | 0.00 | 52 | 1017.3 |
| 20260502150420 | 43 | 319 | 2.0 | 6.0 | 0.00 | 0.00 | 0.00 | 51 | 1017.3 |
| 20260502150411 | 44 | 12 | 2.0 | 6.0 | 0.00 | 0.00 | 0.00 | 51 | 1017.3 |
| 20260502150148 | 45 | 330 | 3.0 | 6.0 | 0.00 | 0.00 | 0.00 | 50 | 1017.7 |
| 20260502150139 | 45 | 283 | 0.0 | 2.0 | 0.00 | 0.00 | 0.00 | 52 | 1017.3 |
| 20260502150129 | 0 | 0.0 | 0.0 | 0.00 | 0.00 | 0.00 | |||
| 20260502130747 | 40 | 29 | 2.0 | 9.0 | 0.00 | 0.00 | 0.00 | 70 | 1017.7 |
| 20260502130641 | 40 | 342 | 0.0 | 9.0 | 0.00 | 0.00 | 0.00 | 70 | 1017.7 |
| 20260502130536 | 40 | 338 | 3.0 | 9.0 | 0.00 | 0.00 | 0.00 | 70 | 1017.7 |
| 20260502130430 | 40 | 340 | 5.0 | 9.0 | 0.00 | 0.00 | 0.00 | 70 | 1017.7 |
| 20260502130325 | 40 | 304 | 2.0 | 9.0 | 0.00 | 0.00 | 0.00 | 71 | 1017.7 |
| 20260502130220 | 40 | 56 | 0.0 | 9.0 | 0.00 | 0.00 | 0.00 | 72 | 1017.7 |
| 20260502130114 | 40 | 333 | 4.0 | 9.0 | 0.00 | 0.00 | 0.00 | 70 | 1017.7 |
| 20260502123750 | 38 | 279 | 0.0 | 7.0 | 0.00 | 0.00 | 0.00 | 78 | 1017.7 |
| 20260502123711 | 38 | 334 | 3.0 | 7.0 | 0.00 | 0.00 | 0.00 | 78 | 1017.7 |
| 20260502123605 | 38 | 351 | 1.0 | 7.0 | 0.00 | 0.00 | 0.00 | 78 | 1017.7 |
| 20260502123459 | 38 | 320 | 2.0 | 6.0 | 0.00 | 0.00 | 0.00 | 78 | 1017.7 |
| 20260502123354 | 38 | 326 | 2.0 | 6.0 | 0.00 | 0.00 | 0.00 | 78 | 1017.7 |
| 20260502123247 | 38 | 321 | 3.0 | 6.0 | 0.00 | 0.00 | 0.00 | 79 | 1017.7 |
| 20260502123142 | 38 | 260 | 1.0 | 6.0 | 0.00 | 0.00 | 0.00 | 79 | 1017.7 |
| 20260502123034 | 38 | 312 | 2.0 | 6.0 | 0.00 | 0.00 | 0.00 | 79 | 1017.7 |
| 20260502122929 | 38 | 334 | 4.0 | 6.0 | 0.00 | 0.00 | 0.00 | 79 | 1017.7 |
| 20260502122823 | 38 | 314 | 0.0 | 6.0 | 0.00 | 0.00 | 0.00 | 80 | 1017.7 |
| 20260502122735 | 38 | 342 | 2.0 | 6.0 | 0.00 | 0.00 | 0.00 | 80 | 1017.7 |
| 20260502122717 | 38 | 337 | 1.0 | 6.0 | 0.00 | 0.00 | 0.00 | 80 | 1017.7 |
| 20260502122612 | 38 | 317 | 2.0 | 7.0 | 0.00 | 0.00 | 0.00 | 80 | 1017.3 |
| 20260502122506 | 38 | 320 | 5.0 | 7.0 | 0.00 | 0.00 | 0.00 | 80 | 1017.7 |
| 20260502122401 | 37 | 276 | 2.0 | 7.0 | 0.00 | 0.00 | 0.00 | 81 | 1017.3 |
| 20260502122255 | 37 | 331 | 3.0 | 7.0 | 0.00 | 0.00 | 0.00 | 81 | 1017.7 |
| 20260502122229 | 37 | 273 | 1.0 | 7.0 | 0.00 | 0.00 | 0.00 | 81 | 1017.7 |
| 20260502122148 | 37 | 3 | 2.0 | 7.0 | 0.00 | 0.00 | 0.00 | 81 | 1017.7 |
| 20260502122043 | 37 | 339 | 2.0 | 7.0 | 0.00 | 0.00 | 0.00 | 81 | 1017.7 |
| 20260502121937 | 37 | 305 | 3.0 | 7.0 | 0.00 | 0.00 | 0.00 | 81 | 1017.7 |
| 20260502121831 | 37 | 327 | 4.0 | 7.0 | 0.00 | 0.00 | 0.00 | 81 | 1017.3 |
| 20260502121726 | 37 | 346 | 6.0 | 7.0 | 0.00 | 0.00 | 0.00 | 82 | 1017.7 |
| 20260502121620 | 37 | 279 | 2.0 | 7.0 | 0.00 | 0.00 | 0.00 | 82 | 1017.7 |
| 20260502121515 | 37 | 303 | 1.0 | 6.0 | 0.00 | 0.00 | 0.00 | 82 | 1017.7 |
| 20260502121409 | 37 | 300 | 2.0 | 6.0 | 0.00 | 0.00 | 0.00 | 82 | 1017.7 |
| 20260502121303 | 37 | 289 | 1.0 | 6.0 | 0.00 | 0.00 | 0.00 | 82 | 1017.7 |
| 20260502121216 | 37 | 10 | 2.0 | 6.0 | 0.00 | 0.00 | 0.00 | 82 | 1017.3 |
| 20260502121158 | 37 | 175 | 1.0 | 6.0 | 0.00 | 0.00 | 0.00 | 83 | 1017.3 |
| 20260502121052 | 37 | 275 | 4.0 | 6.0 | 0.00 | 0.00 | 0.00 | 82 | 1017.3 |
| 20260502120947 | 37 | 329 | 3.0 | 6.0 | 0.00 | 0.00 | 0.00 | 83 | 1017.3 |
| 20260502120841 | 37 | 258 | 1.0 | 6.0 | 0.00 | 0.00 | 0.00 | 83 | 1017.3 |
| 20260502120735 | 36 | 335 | 4.0 | 6.0 | 0.00 | 0.00 | 0.00 | 84 | 1017.3 |
| 20260502120709 | 36 | 315 | 3.0 | 6.0 | 0.00 | 0.00 | 0.00 | 84 | 1017.7 |
| 20260502120629 | 36 | 311 | 2.0 | 6.0 | 0.00 | 0.00 | 0.00 | 84 | 1017.7 |
| 20260502120524 | 36 | 303 | 1.0 | 3.0 | 0.00 | 0.00 | 0.00 | 85 | 1017.3 |
| 20260502120419 | 36 | 306 | 2.0 | 3.0 | 0.00 | 0.00 | 0.00 | 85 | 1017.7 |
| 20260502120312 | 36 | 345 | 3.0 | 3.0 | 0.00 | 0.00 | 0.00 | 86 | 1017.3 |
| 20260502120207 | 35 | 283 | 1.0 | 3.0 | 0.00 | 0.00 | 0.00 | 86 | 1017.7 |
| 20260502120110 | 35 | 298 | 1.0 | 3.0 | 0.00 | 0.00 | 0.00 | 86 | 1017.7 |
| 20260502115851 | 35 | 303 | 0.0 | 0.0 | 0.00 | 0.00 | 0.00 | 87 | 1017.3 |
| 20260502115745 | 35 | 19 | 0.0 | 0.0 | 0.00 | 0.00 | 0.00 | 87 | 1017.3 |
| 20260502115657 | 35 | 320 | 0.0 | 0.0 | 0.00 | 0.00 | 0.00 | 88 | 1017.3 |
| 20260502115637 | 35 | 356 | 0.0 | 0.0 | 0.00 | 0.00 | 0.00 | 88 | 1017.3 |
| 20260502115531 | 35 | 311 | 0.0 | 0.0 | 0.00 | 0.00 | 0.00 | 88 | 1017.7 |
| 20260502115425 | 34 | 328 | 0.0 | 0.0 | 0.00 | 0.00 | 0.00 | 88 | 1017.7 |
| 20260502115320 | 34 | 311 | 0.0 | 0.0 | 0.00 | 0.00 | 0.00 | 88 | 1017.7 |
| 20260502115215 | 34 | 335 | 0.0 | 0.0 | 0.00 | 0.00 | 0.00 | 88 | 1017.7 |
| 20260502115149 | 34 | 335 | 0.0 | 0.0 | 0.00 | 0.00 | 0.00 | 89 | 1017.7 |
| 20260502115108 | 34 | 343 | 0.0 | 0.0 | 0.00 | 0.00 | 0.00 | 89 | 1017.7 |
| 20260502115004 | 34 | 336 | 0.0 | 0.0 | 0.00 | 0.00 | 0.00 | 89 | 1017.7 |
| 20260502114858 | 33 | 335 | 0.0 | 0.0 | 0.00 | 0.00 | 0.00 | 89 | 1017.7 |
| 20260502114752 | 33 | 345 | 0.0 | 0.0 | 0.00 | 0.00 | 0.00 | 89 | 1017.3 |
| 20260502114641 | 33 | 340 | 0.0 | 0.0 | 0.00 | 0.00 | 0.00 | 89 | 1017.7 |
| 20260502114535 | 33 | 344 | 0.0 | 0.0 | 0.00 | 0.00 | 0.00 | 89 | 1017.7 |
| 20260502114429 | 33 | 347 | 0.0 | 0.0 | 0.00 | 0.00 | 0.00 | 89 | 1017.3 |
| 20260502114324 | 33 | 339 | 0.0 | 0.0 | 0.00 | 0.00 | 0.00 | 89 | 1017.3 |
| 20260502114219 | 33 | 341 | 0.0 | 0.0 | 0.00 | 0.00 | 0.00 | 89 | 1017.7 |
| 20260502114130 | 33 | 347 | 0.0 | 0.0 | 0.00 | 0.00 | 0.00 | 89 | 1017.7 |
| 20260502114113 | 33 | 334 | 0.0 | 0.0 | 0.00 | 0.00 | 0.00 | 89 | 1017.3 |
| 20260502114007 | 33 | 333 | 0.0 | 0.0 | 0.00 | 0.00 | 0.00 | 89 | 1017.7 |
| 20260502113901 | 33 | 337 | 0.0 | 0.0 | 0.00 | 0.00 | 0.00 | 89 | 1017.3 |
| 20260502113756 | 33 | 344 | 0.0 | 0.0 | 0.00 | 0.00 | 0.00 | 89 | 1017.7 |
| 20260502113650 | 33 | 327 | 0.0 | 0.0 | 0.00 | 0.00 | 0.00 | 89 | 1017.7 |
| 20260502113622 | 33 | 327 | 0.0 | 0.0 | 0.00 | 0.00 | 0.00 | 89 | 1017.3 |
| 20260502113543 | 33 | 326 | 0.0 | 0.0 | 0.00 | 0.00 | 0.00 | 89 | 1017.3 |
| 20260502113437 | 33 | 336 | 0.0 | 0.0 | 0.00 | 0.00 | 0.00 | 89 | 1017.3 |
| 20260502113331 | 33 | 336 | 0.0 | 0.0 | 0.00 | 0.00 | 0.00 | 89 | 1017.3 |
| 20260502113226 | 33 | 336 | 0.0 | 0.0 | 0.00 | 0.00 | 0.00 | 89 | 1017.7 |
| 20260502113120 | 33 | 336 | 0.0 | 0.0 | 0.00 | 0.00 | 0.00 | 89 | 1017.7 |
| 20260502113015 | 33 | 336 | 0.0 | 0.0 | 0.00 | 0.00 | 0.00 | 89 | 1017.3 |
| 20260502112910 | 33 | 336 | 0.0 | 0.0 | 0.00 | 0.00 | 0.00 | 89 | 1017.3 |
| 20260502112804 | 33 | 336 | 0.0 | 0.0 | 0.00 | 0.00 | 0.00 | 89 | 1017.3 |
| 20260502112658 | 33 | 336 | 0.0 | 0.0 | 0.00 | 0.00 | 0.00 | 89 | 1017.3 |
| 20260502112610 | 33 | 336 | 0.0 | 0.0 | 0.00 | 0.00 | 0.00 | 89 | 1017.3 |
| 20260502112552 | 33 | 336 | 0.0 | 0.0 | 0.00 | 0.00 | 0.00 | 89 | 1017.3 |
| 20260502112447 | 33 | 336 | 0.0 | 0.0 | 0.00 | 0.00 | 0.00 | 89 | 1017.3 |
| 20260502112340 | 33 | 336 | 0.0 | 0.0 | 0.00 | 0.00 | 0.00 | 89 | 1017.3 |
| 20260502112235 | 33 | 336 | 0.0 | 0.0 | 0.00 | 0.00 | 0.00 | 89 | 1017.3 |
| 20260502112103 | 33 | 336 | 0.0 | 0.0 | 0.00 | 0.00 | 0.00 | 89 | 1017.3 |
| 20260502112024 | 33 | 336 | 0.0 | 0.0 | 0.00 | 0.00 | 0.00 | 89 | 1017.3 |
| 20260502111918 | 33 | 336 | 0.0 | 0.0 | 0.00 | 0.00 | 0.00 | 89 | 1017.3 |
| 20260502111814 | 32 | 336 | 0.0 | 0.0 | 0.00 | 0.00 | 0.00 | 89 | 1017.3 |
| 20260502111717 | 32 | 336 | 0.0 | 0.0 | 0.00 | 0.00 | 0.00 | 89 | 1017.3 |
| 20260502111602 | 32 | 337 | 0.0 | 0.0 | 0.00 | 0.00 | 0.00 | 89 | 1017.3 |
| 20260502111454 | 32 | 337 | 0.0 | 0.0 | 0.00 | 0.00 | 0.00 | 89 | 1017.3 |
| 20260502111349 | 32 | 341 | 0.0 | 0.0 | 0.00 | 0.00 | 0.00 | 89 | 1017.3 |
| 20260502111244 | 32 | 341 | 0.0 | 0.0 | 0.00 | 0.00 | 0.00 | 89 | 1017.3 |
| 20260502111139 | 32 | 341 | 0.0 | 0.0 | 0.00 | 0.00 | 0.00 | 89 | 1017.3 |
| 20260502111049 | 32 | 341 | 0.0 | 0.0 | 0.00 | 0.00 | 0.00 | 89 | 1017.3 |
| 20260502111032 | 32 | 342 | 0.0 | 0.0 | 0.00 | 0.00 | 0.00 | 89 | 1017.3 |
| 20260502110926 | 32 | 342 | 0.0 | 0.0 | 0.00 | 0.00 | 0.00 | 89 | 1017.3 |
| 20260502110820 | 32 | 3 | 0.0 | 0.0 | 0.00 | 0.00 | 0.00 | 89 | 1017.3 |
| 20260502110715 | 32 | 3 | 0.0 | 0.0 | 0.00 | 0.00 | 0.00 | 89 | 1017.3 |
| 20260502110609 | 32 | 6 | 0.0 | 0.0 | 0.00 | 0.00 | 0.00 | 89 | 1017.3 |
| 20260502110543 | 32 | 5 | 0.0 | 0.0 | 0.00 | 0.00 | 0.00 | 89 | 1017.3 |
| 20260502110504 | 32 | 6 | 0.0 | 0.0 | 0.00 | 0.00 | 0.00 | 89 | 1016.9 |
| 20260502110358 | 31 | 6 | 0.0 | 0.0 | 0.00 | 0.00 | 0.00 | 89 | 1017.3 |
| 20260502110252 | 32 | 8 | 0.0 | 0.0 | 0.00 | 0.00 | 0.00 | 89 | 1017.3 |
| 20260502110147 | 32 | 8 | 0.0 | 0.0 | 0.00 | 0.00 | 0.00 | 89 | 1017.3 |
| 20260502110041 | 32 | 8 | 0.0 | 0.0 | 0.00 | 0.00 | 0.00 | 89 | 1017.3 |
| 20260502105935 | 32 | 8 | 0.0 | 0.0 | 0.00 | 0.00 | 0.00 | 89 | 1017.3 |
| 20260502105830 | 32 | 8 | 0.0 | 0.0 | 0.00 | 0.00 | 0.00 | 89 | 1017.3 |
| 20260502105724 | 32 | 8 | 0.0 | 0.0 | 0.00 | 0.00 | 0.00 | 89 | 1017.3 |
| 20260502105618 | 32 | 8 | 0.0 | 0.0 | 0.00 | 0.00 | 0.00 | 89 | 1017.3 |
| 20260502105530 | 32 | 8 | 0.0 | 0.0 | 0.00 | 0.00 | 0.00 | 89 | 1017.3 |
| 20260502105513 | 32 | 8 | 0.0 | 0.0 | 0.00 | 0.00 | 0.00 | 89 | 1017.3 |
| 20260502105406 | 32 | 13 | 0.0 | 0.0 | 0.00 | 0.00 | 0.00 | 89 | 1017.3 |
| 20260502105302 | 32 | 35 | 0.0 | 0.0 | 0.00 | 0.00 | 0.00 | 89 | 1017.3 |
| 20260502105156 | 32 | 36 | 0.0 | 0.0 | 0.00 | 0.00 | 0.00 | 89 | 1017.3 |
| 20260502105050 | 32 | 49 | 0.0 | 0.0 | 0.00 | 0.00 | 0.00 | 89 | 1017.3 |
| 20260502105023 | 32 | 62 | 0.0 | 0.0 | 0.00 | 0.00 | 0.00 | 89 | 1017.3 |
| 20260502104945 | 32 | 64 | 0.0 | 0.0 | 0.00 | 0.00 | 0.00 | 89 | 1017.3 |
| 20260502104839 | 32 | 67 | 0.0 | 0.0 | 0.00 | 0.00 | 0.00 | 89 | 1017.3 |
| 20260502104733 | 32 | 68 | 0.0 | 0.0 | 0.00 | 0.00 | 0.00 | 89 | 1017.3 |
| 20260502104627 | 32 | 83 | 0.0 | 0.0 | 0.00 | 0.00 | 0.00 | 89 | 1016.9 |
| 20260502104521 | 32 | 96 | 0.0 | 0.0 | 0.00 | 0.00 | 0.00 | 89 | 1016.9 |
| 20260502104415 | 32 | 123 | 0.0 | 0.0 | 0.00 | 0.00 | 0.00 | 89 | 1016.9 |
| 20260502104310 | 32 | 126 | 0.0 | 0.0 | 0.00 | 0.00 | 0.00 | 89 | 1017.3 |
| 20260502104205 | 32 | 134 | 0.0 | 0.0 | 0.00 | 0.00 | 0.00 | 88 | 1017.3 |
| 20260502104050 | 32 | 135 | 0.0 | 0.0 | 0.00 | 0.00 | 0.00 | 88 | 1017.3 |
| 20260502104013 | 32 | 135 | 0.0 | 0.0 | 0.00 | 0.00 | 0.00 | 88 | 1016.9 |
| 20260502103944 | 32 | 135 | 0.0 | 0.0 | 0.00 | 0.00 | 0.00 | 88 | 1016.9 |
| 20260502103838 | 32 | 135 | 0.0 | 0.0 | 0.00 | 0.00 | 0.00 | 88 | 1016.9 |
| 20260502103734 | 32 | 135 | 0.0 | 0.0 | 0.00 | 0.00 | 0.00 | 88 | 1017.3 |
| 20260502103628 | 32 | 135 | 0.0 | 0.0 | 0.00 | 0.00 | 0.00 | 88 | 1017.3 |
| 20260502103541 | 32 | 135 | 0.0 | 0.0 | 0.00 | 0.00 | 0.00 | 87 | 1017.3 |
| 20260502103526 | 32 | 135 | 0.0 | 0.0 | 0.00 | 0.00 | 0.00 | 88 | 1017.3 |
| 20260502103522 | 32 | 135 | 0.0 | 0.0 | 0.00 | 0.00 | 0.00 | 88 | 1017.3 |
| 20260502103513 | 32 | 135 | 0.0 | 0.0 | 0.00 | 0.00 | 0.00 | 88 | 1017.3 |
| 20260502103248 | 32 | 135 | 0.0 | 0.0 | 0.00 | 0.00 | 0.00 | 88 | 1016.9 |
| 20260502103240 | 32 | 135 | 0.0 | 0.0 | 0.00 | 0.00 | 0.00 | 88 | 1016.9 |
| 20260502103017 | 32 | 135 | 0.0 | 0.0 | 0.00 | 0.00 | 0.00 | 88 | 1017.3 |
| 20260502103013 | 32 | 135 | 0.0 | 0.0 | 0.00 | 0.00 | 0.00 | 88 | 1017.3 |
| 20260502103005 | 32 | 135 | 0.0 | 0.0 | 0.00 | 0.00 | 0.00 | 87 | 1017.3 |
| 20260502102956 | 32 | 135 | 0.0 | 0.0 | 0.00 | 0.00 | 0.00 | 87 | 1017.3 |
| 20260502102731 | 32 | 135 | 0.0 | 0.0 | 0.00 | 0.00 | 0.00 | 87 | 1017.3 |
| 20260502102722 | 32 | 135 | 0.0 | 0.0 | 0.00 | 0.00 | 0.00 | 87 | 1017.3 |
| 20260502102456 | 32 | 135 | 0.0 | 0.0 | 0.00 | 0.00 | 0.00 | 87 | 1017.3 |
| 20260502102452 | 32 | 135 | 0.0 | 0.0 | 0.00 | 0.00 | 0.00 | 87 | 1016.9 |
| 20260502102444 | 32 | 135 | 0.0 | 0.0 | 0.00 | 0.00 | 0.00 | 87 | 1017.3 |
| 20260502102223 | 32 | 135 | 0.0 | 0.0 | 0.00 | 0.00 | 0.00 | 87 | 1016.9 |
| 20260502102215 | 32 | 135 | 0.0 | 0.0 | 0.00 | 0.00 | 0.00 | 87 | 1016.9 |
| 20260502102206 | 32 | 135 | 0.0 | 0.0 | 0.00 | 0.00 | 0.00 | 87 | 1017.3 |
| 20260502101856 | 32 | 135 | 0.0 | 0.0 | 0.00 | 0.00 | 0.00 | 87 | 1017.3 |
| 20260502101751 | 32 | 135 | 0.0 | 0.0 | 0.00 | 0.00 | 0.00 | 87 | 1016.9 |
| 20260502101646 | 33 | 135 | 0.0 | 0.0 | 0.00 | 0.00 | 0.00 | 87 | 1016.9 |
| 20260502101540 | 33 | 135 | 0.0 | 0.0 | 0.00 | 0.00 | 0.00 | 87 | 1016.9 |
| 20260502101523 | 34 | 135 | 0.0 | 0.0 | 0.00 | 0.00 | 0.00 | 85 | 1017.3 |
| 20260502101518 | 34 | 135 | 0.0 | 0.0 | 0.00 | 0.00 | 0.00 | 85 | 1016.9 |
| 20260502101508 | 33 | 135 | 0.0 | 0.0 | 0.00 | 0.00 | 0.00 | 86 | 1017.3 |
| 20260502101500 | 33 | 135 | 0.0 | 0.0 | 0.00 | 0.00 | 0.00 | 86 | 1016.9 |
| 20260502101238 | 33 | 135 | 0.0 | 0.0 | 0.00 | 0.00 | 0.00 | 86 | 1016.9 |
| 20260502101230 | 33 | 135 | 0.0 | 0.0 | 0.00 | 0.00 | 0.00 | 86 | 1016.9 |
| 20260502101221 | 33 | 135 | 0.0 | 0.0 | 0.00 | 0.00 | 0.00 | 86 | 1016.9 |
| 20260502100951 | 33 | 135 | 0.0 | 0.0 | 0.00 | 0.00 | 0.00 | 86 | 1016.9 |
| 20260502100942 | 33 | 135 | 0.0 | 0.0 | 0.00 | 0.00 | 0.00 | 86 | 1016.9 |
| 20260502100723 | 33 | 135 | 0.0 | 0.0 | 0.00 | 0.00 | 0.00 | 86 | 1016.9 |
| 20260502100714 | 33 | 135 | 0.0 | 0.0 | 0.00 | 0.00 | 0.00 | 86 | 1016.9 |
| 20260502100443 | 33 | 135 | 0.0 | 0.0 | 0.00 | 0.00 | 0.00 | 85 | 1016.9 |
| 20260502100439 | 33 | 135 | 0.0 | 0.0 | 0.00 | 0.00 | 0.00 | 85 | 1016.9 |
| 20260502100430 | 33 | 135 | 0.0 | 0.0 | 0.00 | 0.00 | 0.00 | 85 | 1016.9 |
| 20260502100409 | 33 | 135 | 0.0 | 0.0 | 0.00 | 0.00 | 0.00 | 85 | 1016.9 |
| 20260502100400 | 34 | 135 | 0.0 | 0.0 | 0.00 | 0.00 | 0.00 | 85 | 1016.9 |
| 20260502100350 | 34 | 135 | 0.0 | 0.0 | 0.00 | 0.00 | 0.00 | 85 | 1017.3 |
| 20260502091335 | 35 | 135 | 0.0 | 0.0 | 0.00 | 0.00 | 0.00 | 83 | 1016.6 |
| 20260502091326 | 35 | 135 | 0.0 | 0.0 | 0.00 | 0.00 | 0.00 | 83 | 1016.9 |
| 20260502091318 | 35 | 135 | 0.0 | 0.0 | 0.00 | 0.00 | 0.00 | 83 | 1016.9 |
| 20260502091055 | 35 | 135 | 0.0 | 0.0 | 0.00 | 0.00 | 0.00 | 83 | 1016.9 |
| 20260502091046 | 35 | 135 | 0.0 | 0.0 | 0.00 | 0.00 | 0.00 | 83 | 1016.9 |
| 20260502090824 | 35 | 135 | 0.0 | 0.0 | 0.00 | 0.00 | 0.00 | 83 | 1016.9 |
| 20260502090816 | 35 | 135 | 0.0 | 0.0 | 0.00 | 0.00 | 0.00 | 83 | 1016.9 |
| 20260502090555 | 35 | 135 | 0.0 | 0.0 | 0.00 | 0.00 | 0.00 | 83 | 1016.9 |
| 20260502090551 | 35 | 135 | 0.0 | 0.0 | 0.00 | 0.00 | 0.00 | 83 | 1016.9 |
| 20260502090543 | 35 | 135 | 0.0 | 0.0 | 0.00 | 0.00 | 0.00 | 83 | 1016.9 |
| 20260502090534 | 35 | 135 | 0.0 | 0.0 | 0.00 | 0.00 | 0.00 | 83 | 1016.9 |
| 20260502090312 | 35 | 135 | 0.0 | 0.0 | 0.00 | 0.00 | 0.00 | 83 | 1016.6 |
| 20260502090304 | 35 | 135 | 0.0 | 0.0 | 0.00 | 0.00 | 0.00 | 83 | 1016.9 |
| 20260502071500 | 36 | 124 | 0.0 | 0.0 | 0.00 | 0.00 | 0.00 | 83 | 1016.6 |
| 20260502071354 | 36 | 124 | 0.0 | 0.0 | 0.00 | 0.00 | 0.00 | 83 | 1016.9 |
| 20260502071248 | 36 | 124 | 0.0 | 0.0 | 0.00 | 0.00 | 0.00 | 83 | 1016.6 |
| 20260502071142 | 36 | 124 | 0.0 | 0.0 | 0.00 | 0.00 | 0.00 | 83 | 1016.6 |
| 20260502071037 | 36 | 124 | 0.0 | 0.0 | 0.00 | 0.00 | 0.00 | 83 | 1016.6 |
| 20260502070932 | 36 | 124 | 0.0 | 0.0 | 0.00 | 0.00 | 0.00 | 83 | 1016.3 |
| 20260502070826 | 36 | 124 | 0.0 | 0.0 | 0.00 | 0.00 | 0.00 | 83 | 1016.6 |
| 20260502070720 | 35 | 123 | 0.0 | 0.0 | 0.00 | 0.00 | 0.00 | 83 | 1016.6 |
| 20260502070648 | 35 | 124 | 0.0 | 0.0 | 0.00 | 0.00 | 0.00 | 82 | 1016.9 |
| 20260502070642 | 36 | 124 | 0.0 | 0.0 | 0.00 | 0.00 | 0.00 | 83 | 1016.9 |
| 20260502070638 | 35 | 124 | 0.0 | 0.0 | 0.00 | 0.00 | 0.00 | 83 | 1016.6 |
| 20260502070623 | 36 | 124 | 0.0 | 0.0 | 0.00 | 0.00 | 0.00 | 83 | 1016.9 |
| 20260502070615 | 36 | 124 | 0.0 | 0.0 | 0.00 | 0.00 | 0.00 | 83 | 1016.9 |
| 20260502070345 | 36 | 124 | 0.0 | 0.0 | 0.00 | 0.00 | 0.00 | 83 | 1016.9 |
| 20260502070336 | 36 | 124 | 0.0 | 0.0 | 0.00 | 0.00 | 0.00 | 83 | 1016.9 |
| 20260502070327 | 36 | 124 | 0.0 | 0.0 | 0.00 | 0.00 | 0.00 | 83 | 1016.6 |
| 20260502070041 | 36 | 124 | 0.0 | 0.0 | 0.00 | 0.00 | 0.00 | 83 | 1016.9 |
| 20260502065821 | 36 | 124 | 0.0 | 0.0 | 0.00 | 0.00 | 0.00 | 83 | 1016.6 |
| 20260502065813 | 36 | 124 | 0.0 | 0.0 | 0.00 | 0.00 | 0.00 | 83 | 1016.6 |
| 20260502065543 | 36 | 124 | 0.0 | 0.0 | 0.00 | 0.00 | 0.00 | 83 | 1016.6 |
| 20260502065535 | 36 | 124 | 0.0 | 0.0 | 0.00 | 0.00 | 0.00 | 83 | 1016.6 |
| 20260502065314 | 36 | 124 | 0.0 | 0.0 | 0.00 | 0.00 | 0.00 | 83 | 1016.6 |
| 20260502065306 | 36 | 124 | 0.0 | 0.0 | 0.00 | 0.00 | 0.00 | 83 | 1016.6 |
| 20260502065257 | 36 | 124 | 0.0 | 0.0 | 0.00 | 0.00 | 0.00 | 83 | 1016.9 |
| 20260502065030 | 36 | 124 | 0.0 | 0.0 | 0.00 | 0.00 | 0.00 | 83 | 1016.9 |
| 20260502065026 | 36 | 124 | 0.0 | 0.0 | 0.00 | 0.00 | 0.00 | 83 | 1016.9 |
| 20260502065017 | 36 | 124 | 0.0 | 0.0 | 0.00 | 0.00 | 0.00 | 83 | 1016.9 |
| 20260502064757 | 36 | 124 | 0.0 | 0.0 | 0.00 | 0.00 | 0.00 | 83 | 1016.9 |
| 20260502064748 | 36 | 124 | 0.0 | 0.0 | 0.00 | 0.00 | 0.00 | 83 | 1016.9 |
| 20260502064740 | 36 | 124 | 0.0 | 0.0 | 0.00 | 0.00 | 0.00 | 83 | 1016.9 |
| 20260502064519 | 35 | 124 | 0.0 | 0.0 | 0.00 | 0.00 | 0.00 | 82 | 1016.9 |
| 20260502064510 | 35 | 124 | 0.0 | 0.0 | 0.00 | 0.00 | 0.00 | 82 | 1016.9 |
| 20260502064250 | 35 | 123 | 0.0 | 0.0 | 0.00 | 0.00 | 0.00 | 82 | 1016.9 |
| 20260502064245 | 35 | 124 | 0.0 | 0.0 | 0.00 | 0.00 | 0.00 | 82 | 1016.9 |
| 20260502064236 | 35 | 124 | 0.0 | 0.0 | 0.00 | 0.00 | 0.00 | 82 | 1016.9 |
| 20260502064221 | 35 | 124 | 0.0 | 0.0 | 0.00 | 0.00 | 0.00 | 82 | 1016.9 |
| 20260502063958 | 35 | 124 | 0.0 | 0.0 | 0.00 | 0.00 | 0.00 | 83 | 1016.9 |
| 20260502063937 | 35 | 124 | 0.0 | 0.0 | 0.00 | 0.00 | 0.00 | 82 | 1016.9 |
| 20260502063714 | 35 | 123 | 0.0 | 0.0 | 0.00 | 0.00 | 0.00 | 82 | 1016.9 |
| 20260502063706 | 35 | 123 | 0.0 | 0.0 | 0.00 | 0.00 | 0.00 | 82 | 1016.9 |
| 20260502063430 | 35 | 123 | 0.0 | 0.0 | 0.00 | 0.00 | 0.00 | 82 | 1016.9 |
| 20260502063326 | 35 | 123 | 0.0 | 0.0 | 0.00 | 0.00 | 0.00 | 82 | 1016.9 |
| 20260502063244 | 35 | 123 | 0.0 | 0.0 | 0.00 | 0.00 | 0.00 | 82 | 1016.9 |
| 20260502063240 | 35 | 123 | 0.0 | 0.0 | 0.00 | 0.00 | 0.00 | 82 | 1016.9 |
| 20260502063232 | 35 | 123 | 0.0 | 0.0 | 0.00 | 0.00 | 0.00 | 82 | 1016.9 |
| 20260502063011 | 35 | 123 | 0.0 | 0.0 | 0.00 | 0.00 | 0.00 | 82 | 1016.9 |
| 20260502063000 | 35 | 123 | 0.0 | 0.0 | 0.00 | 0.00 | 0.00 | 82 | 1016.9 |
| 20260502062956 | 35 | 123 | 0.0 | 0.0 | 0.00 | 0.00 | 0.00 | 82 | 1016.9 |
| 20260502062948 | 35 | 123 | 0.0 | 0.0 | 0.00 | 0.00 | 0.00 | 82 | 1016.9 |
| 20260502062727 | 35 | 123 | 0.0 | 0.0 | 0.00 | 0.00 | 0.00 | 82 | 1016.9 |
| 20260502062706 | 35 | 123 | 0.0 | 0.0 | 0.00 | 0.00 | 0.00 | 82 | 1016.9 |
| 20260502062655 | 35 | 123 | 0.0 | 0.0 | 0.00 | 0.00 | 0.00 | 82 | 1016.9 |
| 20260502062348 | 35 | 123 | 0.0 | 0.0 | 0.00 | 0.00 | 0.00 | 82 | 1016.9 |
| 20260502062231 | 35 | 123 | 0.0 | 0.0 | 0.00 | 0.00 | 0.00 | 82 | 1017.3 |
| 20260502062125 | 35 | 123 | 0.0 | 0.0 | 0.00 | 0.00 | 0.00 | 83 | 1017.3 |
| 20260502062019 | 35 | 123 | 0.0 | 0.0 | 0.00 | 0.00 | 0.00 | 83 | 1016.9 |
| 20260502061914 | 35 | 122 | 0.0 | 0.0 | 0.00 | 0.00 | 0.00 | 83 | 1016.9 |
| 20260502061809 | 35 | 122 | 0.0 | 0.0 | 0.00 | 0.00 | 0.00 | 83 | 1016.9 |
| 20260502061702 | 35 | 122 | 0.0 | 0.0 | 0.00 | 0.00 | 0.00 | 83 | 1016.9 |
| 20260502061556 | 35 | 122 | 0.0 | 0.0 | 0.00 | 0.00 | 0.00 | 83 | 1017.3 |
| 20260502061423 | 35 | 121 | 0.0 | 0.0 | 0.00 | 0.00 | 0.00 | 83 | 1017.3 |
| 20260502061343 | 35 | 120 | 0.0 | 0.0 | 0.00 | 0.00 | 0.00 | 83 | 1017.3 |
| 20260502061237 | 35 | 109 | 0.0 | 0.0 | 0.00 | 0.00 | 0.00 | 83 | 1017.7 |
| 20260502061132 | 35 | 109 | 0.0 | 0.0 | 0.00 | 0.00 | 0.00 | 82 | 1017.3 |
| 20260502061026 | 35 | 108 | 0.0 | 0.0 | 0.00 | 0.00 | 0.00 | 82 | 1017.3 |
| 20260502060920 | 35 | 108 | 0.0 | 0.0 | 0.00 | 0.00 | 0.00 | 82 | 1016.9 |
| 20260502060815 | 35 | 108 | 0.0 | 0.0 | 0.00 | 0.00 | 0.00 | 82 | 1016.9 |
| 20260502060709 | 35 | 108 | 0.0 | 0.0 | 0.00 | 0.00 | 0.00 | 82 | 1017.3 |
| 20260502060601 | 35 | 108 | 0.0 | 0.0 | 0.00 | 0.00 | 0.00 | 82 | 1016.9 |
| 20260502060457 | 35 | 108 | 0.0 | 0.0 | 0.00 | 0.00 | 0.00 | 82 | 1017.3 |
| 20260502060407 | 35 | 108 | 0.0 | 0.0 | 0.00 | 0.00 | 0.00 | 82 | 1016.9 |
| 20260502060350 | 35 | 108 | 0.0 | 0.0 | 0.00 | 0.00 | 0.00 | 82 | 1016.9 |
| 20260502060244 | 35 | 108 | 0.0 | 0.0 | 0.00 | 0.00 | 0.00 | 82 | 1016.9 |
| 20260502060139 | 35 | 108 | 0.0 | 0.0 | 0.00 | 0.00 | 0.00 | 82 | 1016.9 |
| 20260502060033 | 35 | 108 | 0.0 | 0.0 | 0.00 | 0.00 | 0.00 | 82 | 1016.9 |
| 20260502055901 | 35 | 108 | 0.0 | 0.0 | 0.00 | 0.00 | 0.00 | 82 | 1017.3 |
| 20260502055821 | 35 | 108 | 0.0 | 0.0 | 0.00 | 0.00 | 0.00 | 82 | 1017.3 |
| 20260502055715 | 35 | 108 | 0.0 | 0.0 | 0.00 | 0.00 | 0.00 | 82 | 1017.3 |
| 20260502055610 | 35 | 108 | 0.0 | 0.0 | 0.00 | 0.00 | 0.00 | 82 | 1017.3 |
| 20260502055505 | 35 | 108 | 0.0 | 0.0 | 0.00 | 0.00 | 0.00 | 82 | 1017.3 |
| 20260502055358 | 35 | 108 | 0.0 | 0.0 | 0.00 | 0.00 | 0.00 | 82 | 1017.3 |
| 20260502055252 | 35 | 108 | 0.0 | 0.0 | 0.00 | 0.00 | 0.00 | 82 | 1017.3 |
| 20260502055147 | 35 | 108 | 0.0 | 0.0 | 0.00 | 0.00 | 0.00 | 82 | 1017.3 |
| 20260502055043 | 35 | 108 | 0.0 | 0.0 | 0.00 | 0.00 | 0.00 | 82 | 1017.3 |
| 20260502054938 | 35 | 108 | 0.0 | 0.0 | 0.00 | 0.00 | 0.00 | 82 | 1017.3 |
| 20260502054832 | 35 | 108 | 0.0 | 0.0 | 0.00 | 0.00 | 0.00 | 82 | 1017.3 |
| 20260502054727 | 35 | 108 | 0.0 | 0.0 | 0.00 | 0.00 | 0.00 | 82 | 1016.9 |
| 20260502054634 | 35 | 108 | 0.0 | 0.0 | 0.00 | 0.00 | 0.00 | 82 | 1017.3 |
| 20260502054515 | 35 | 108 | 0.0 | 0.0 | 0.00 | 0.00 | 0.00 | 82 | 1017.3 |
| 20260502054409 | 35 | 108 | 0.0 | 0.0 | 0.00 | 0.00 | 0.00 | 81 | 1017.3 |
| 20260502054343 | 35 | 108 | 0.0 | 0.0 | 0.00 | 0.00 | 0.00 | 81 | 1017.3 |
| 20260502054303 | 35 | 108 | 0.0 | 0.0 | 0.00 | 0.00 | 0.00 | 81 | 1016.9 |
| 20260502054156 | 35 | 108 | 0.0 | 0.0 | 0.00 | 0.00 | 0.00 | 81 | 1016.9 |
| 20260502054048 | 35 | 108 | 0.0 | 0.0 | 0.00 | 0.00 | 0.00 | 81 | 1017.3 |
| 20260502053943 | 35 | 108 | 0.0 | 0.0 | 0.00 | 0.00 | 0.00 | 81 | 1017.7 |
| 20260502053837 | 35 | 108 | 0.0 | 0.0 | 0.00 | 0.00 | 0.00 | 81 | 1017.3 |
| 20260502053732 | 35 | 108 | 0.0 | 0.0 | 0.00 | 0.00 | 0.00 | 81 | 1016.9 |
| 20260502053627 | 35 | 108 | 0.0 | 0.0 | 0.00 | 0.00 | 0.00 | 81 | 1017.3 |
| 20260502053521 | 35 | 108 | 0.0 | 0.0 | 0.00 | 0.00 | 0.00 | 81 | 1016.9 |
| 20260502053416 | 35 | 107 | 0.0 | 0.0 | 0.00 | 0.00 | 0.00 | 81 | 1017.3 |
| 20260502053309 | 36 | 107 | 0.0 | 0.0 | 0.00 | 0.00 | 0.00 | 81 | 1017.3 |
| 20260502053204 | 36 | 107 | 0.0 | 0.0 | 0.00 | 0.00 | 0.00 | 81 | 1017.3 |
| 20260502053058 | 36 | 107 | 0.0 | 0.0 | 0.00 | 0.00 | 0.00 | 81 | 1017.3 |
| 20260502052954 | 36 | 112 | 0.0 | 0.0 | 0.00 | 0.00 | 0.00 | 81 | 1017.3 |
| 20260502052847 | 35 | 114 | 0.0 | 0.0 | 0.00 | 0.00 | 0.00 | 81 | 1017.3 |
| 20260502052820 | 35 | 115 | 0.0 | 0.0 | 0.00 | 0.00 | 0.00 | 81 | 1016.9 |
| 20260502052742 | 35 | 115 | 0.0 | 0.0 | 0.00 | 0.00 | 0.00 | 81 | 1016.9 |
| 20260502052636 | 35 | 115 | 0.0 | 0.0 | 0.00 | 0.00 | 0.00 | 81 | 1016.9 |
| 20260502052530 | 35 | 116 | 0.0 | 0.0 | 0.00 | 0.00 | 0.00 | 81 | 1017.3 |
| 20260502052425 | 36 | 117 | 0.0 | 0.0 | 0.00 | 0.00 | 0.00 | 80 | 1017.3 |
| 20260502052319 | 36 | 117 | 0.0 | 0.0 | 0.00 | 0.00 | 0.00 | 80 | 1016.9 |
| 20260502052154 | 36 | 117 | 0.0 | 0.0 | 0.00 | 0.00 | 0.00 | 80 | 1017.3 |
| 20260502052048 | 36 | 117 | 0.0 | 0.0 | 0.00 | 0.00 | 0.00 | 80 | 1017.3 |
| 20260502051943 | 36 | 117 | 0.0 | 0.0 | 0.00 | 0.00 | 0.00 | 80 | 1017.3 |
| 20260502051837 | 36 | 117 | 0.0 | 0.0 | 0.00 | 0.00 | 0.00 | 81 | 1017.3 |
| 20260502051731 | 35 | 117 | 0.0 | 0.0 | 0.00 | 0.00 | 0.00 | 81 | 1017.3 |
| 20260502051625 | 36 | 115 | 0.0 | 0.0 | 0.00 | 0.00 | 0.00 | 81 | 1017.3 |
| 20260502051519 | 35 | 117 | 0.0 | 0.0 | 0.00 | 0.00 | 0.00 | 81 | 1017.3 |
| 20260502051413 | 35 | 116 | 0.0 | 0.0 | 0.00 | 0.00 | 0.00 | 81 | 1017.3 |
| 20260502051309 | 35 | 116 | 0.0 | 0.0 | 0.00 | 0.00 | 0.00 | 81 | 1017.3 |
| 20260502051241 | 35 | 116 | 0.0 | 0.0 | 0.00 | 0.00 | 0.00 | 81 | 1017.3 |
| 20260502051203 | 35 | 116 | 0.0 | 0.0 | 0.00 | 0.00 | 0.00 | 81 | 1017.3 |
| 20260502051056 | 36 | 116 | 0.0 | 0.0 | 0.00 | 0.00 | 0.00 | 81 | 1017.3 |
| 20260502050952 | 36 | 116 | 0.0 | 0.0 | 0.00 | 0.00 | 0.00 | 80 | 1016.9 |
| 20260502050845 | 36 | 115 | 0.0 | 0.0 | 0.00 | 0.00 | 0.00 | 80 | 1017.3 |
| 20260502050740 | 36 | 115 | 0.0 | 0.0 | 0.00 | 0.00 | 0.00 | 80 | 1016.9 |
| 20260502050633 | 36 | 116 | 0.0 | 0.0 | 0.00 | 0.00 | 0.00 | 80 | 1017.3 |
| 20260502050527 | 36 | 116 | 0.0 | 0.0 | 0.00 | 0.00 | 0.00 | 80 | 1016.9 |
| 20260502050433 | 36 | 116 | 0.0 | 0.0 | 0.00 | 0.00 | 0.00 | 80 | 1016.9 |
| 20260502050315 | 36 | 116 | 0.0 | 0.0 | 0.00 | 0.00 | 0.00 | 81 | 1017.3 |
| 20260502050226 | 36 | 115 | 0.0 | 0.0 | 0.00 | 0.00 | 0.00 | 80 | 1017.3 |
| 20260502050208 | 36 | 116 | 0.0 | 0.0 | 0.00 | 0.00 | 0.00 | 80 | 1017.3 |
| 20260502050104 | 36 | 116 | 0.0 | 0.0 | 0.00 | 0.00 | 0.00 | 80 | 1016.9 |
| 20260502045956 | 36 | 116 | 0.0 | 0.0 | 0.00 | 0.00 | 0.00 | 80 | 1016.9 |
| 20260502045851 | 36 | 116 | 0.0 | 0.0 | 0.00 | 0.00 | 0.00 | 80 | 1016.9 |
| 20260502045744 | 36 | 115 | 0.0 | 0.0 | 0.00 | 0.00 | 0.00 | 80 | 1017.3 |
| 20260502045718 | 36 | 116 | 0.0 | 0.0 | 0.00 | 0.00 | 0.00 | 81 | 1017.3 |
| 20260502045639 | 36 | 112 | 0.0 | 0.0 | 0.00 | 0.00 | 0.00 | 81 | 1017.3 |
| 20260502045533 | 36 | 112 | 0.0 | 0.0 | 0.00 | 0.00 | 0.00 | 81 | 1017.3 |
| 20260502045428 | 36 | 112 | 0.0 | 0.0 | 0.00 | 0.00 | 0.00 | 81 | 1016.9 |
| 20260502045321 | 36 | 110 | 0.0 | 0.0 | 0.00 | 0.00 | 0.00 | 81 | 1016.9 |
| 20260502045216 | 36 | 94 | 0.0 | 0.0 | 0.00 | 0.00 | 0.00 | 81 | 1016.9 |
| 20260502045111 | 36 | 90 | 0.0 | 0.0 | 0.00 | 0.00 | 0.00 | 81 | 1016.9 |
| 20260502045005 | 36 | 76 | 0.0 | 0.0 | 0.00 | 0.00 | 0.00 | 81 | 1016.9 |
| 20260502044858 | 36 | 71 | 0.0 | 0.0 | 0.00 | 0.00 | 0.00 | 81 | 1016.9 |
| 20260502044753 | 36 | 87 | 0.0 | 0.0 | 0.00 | 0.00 | 0.00 | 81 | 1016.9 |
| 20260502044705 | 36 | 87 | 0.0 | 0.0 | 0.00 | 0.00 | 0.00 | 81 | 1016.9 |
| 20260502044647 | 36 | 83 | 0.0 | 0.0 | 0.00 | 0.00 | 0.00 | 81 | 1016.9 |
| 20260502044542 | 36 | 40 | 0.0 | 0.0 | 0.00 | 0.00 | 0.00 | 81 | 1016.9 |
| 20260502044437 | 36 | 23 | 0.0 | 0.0 | 0.00 | 0.00 | 0.00 | 81 | 1016.9 |
| 20260502044332 | 36 | 11 | 0.0 | 0.0 | 0.00 | 0.00 | 0.00 | 81 | 1016.9 |
| 20260502044225 | 36 | 27 | 0.0 | 0.0 | 0.00 | 0.00 | 0.00 | 81 | 1016.9 |
| 20260502044159 | 36 | 14 | 0.0 | 0.0 | 0.00 | 0.00 | 0.00 | 81 | 1016.9 |
| 20260502044119 | 36 | 53 | 0.0 | 0.0 | 0.00 | 0.00 | 0.00 | 81 | 1016.9 |
| 20260502044014 | 36 | 51 | 0.0 | 0.0 | 0.00 | 0.00 | 0.00 | 81 | 1016.9 |
| 20260502043908 | 36 | 41 | 0.0 | 0.0 | 0.00 | 0.00 | 0.00 | 81 | 1016.9 |
| 20260502043802 | 36 | 21 | 0.0 | 0.0 | 0.00 | 0.00 | 0.00 | 81 | 1016.9 |
| 20260502043656 | 36 | 41 | 0.0 | 0.0 | 0.00 | 0.00 | 0.00 | 81 | 1016.9 |
| 20260502043552 | 36 | 66 | 0.0 | 0.0 | 0.00 | 0.00 | 0.00 | 81 | 1016.9 |
| 20260502043445 | 36 | 65 | 0.0 | 0.0 | 0.00 | 0.00 | 0.00 | 81 | 1016.9 |
| 20260502043340 | 36 | 64 | 0.0 | 0.0 | 0.00 | 0.00 | 0.00 | 81 | 1016.9 |
| 20260502043235 | 36 | 86 | 0.0 | 0.0 | 0.00 | 0.00 | 0.00 | 81 | 1016.9 |
| 20260502043129 | 36 | 81 | 0.0 | 0.0 | 0.00 | 0.00 | 0.00 | 81 | 1016.9 |
| 20260502043023 | 36 | 64 | 0.0 | 0.0 | 0.00 | 0.00 | 0.00 | 81 | 1016.9 |
| 20260502042917 | 36 | 63 | 0.0 | 0.0 | 0.00 | 0.00 | 0.00 | 81 | 1016.9 |
| 20260502042812 | 36 | 55 | 0.0 | 0.0 | 0.00 | 0.00 | 0.00 | 81 | 1016.9 |
| 20260502042706 | 36 | 52 | 0.0 | 0.0 | 0.00 | 0.00 | 0.00 | 81 | 1016.9 |
| 20260502042640 | 36 | 51 | 0.0 | 0.0 | 0.00 | 0.00 | 0.00 | 81 | 1016.9 |
| 20260502042600 | 36 | 41 | 0.0 | 0.0 | 0.00 | 0.00 | 0.00 | 81 | 1016.9 |
| 20260502042454 | 36 | 59 | 0.0 | 0.0 | 0.00 | 0.00 | 0.00 | 81 | 1016.9 |
| 20260502042349 | 36 | 57 | 0.0 | 0.0 | 0.00 | 0.00 | 0.00 | 81 | 1016.9 |
| 20260502042244 | 36 | 54 | 0.0 | 0.0 | 0.00 | 0.00 | 0.00 | 81 | 1016.9 |
| 20260502042138 | 36 | 47 | 0.0 | 0.0 | 0.00 | 0.00 | 0.00 | 81 | 1016.6 |
| 20260502042032 | 36 | 32 | 0.0 | 0.0 | 0.00 | 0.00 | 0.00 | 81 | 1016.9 |
| 20260502041927 | 36 | 64 | 0.0 | 0.0 | 0.00 | 0.00 | 0.00 | 81 | 1016.9 |
| 20260502041821 | 36 | 62 | 0.0 | 0.0 | 0.00 | 0.00 | 0.00 | 81 | 1016.9 |
| 20260502041715 | 36 | 45 | 0.0 | 0.0 | 0.00 | 0.00 | 0.00 | 81 | 1016.9 |
| 20260502041627 | 36 | 73 | 0.0 | 0.0 | 0.00 | 0.00 | 0.00 | 81 | 1016.9 |
| 20260502041611 | 36 | 65 | 0.0 | 0.0 | 0.00 | 0.00 | 0.00 | 81 | 1016.9 |
| 20260502041504 | 36 | 61 | 0.0 | 0.0 | 0.00 | 0.00 | 0.00 | 81 | 1016.9 |
| 20260502041359 | 36 | 62 | 0.0 | 0.0 | 0.00 | 0.00 | 0.00 | 81 | 1016.9 |
| 20260502041253 | 36 | 62 | 0.0 | 0.0 | 0.00 | 0.00 | 0.00 | 81 | 1016.9 |
| 20260502041147 | 36 | 62 | 0.0 | 0.0 | 0.00 | 0.00 | 0.00 | 81 | 1016.9 |
| 20260502041121 | 36 | 61 | 0.0 | 0.0 | 0.00 | 0.00 | 0.00 | 81 | 1016.9 |
| 20260502041042 | 36 | 60 | 0.0 | 0.0 | 0.00 | 0.00 | 0.00 | 81 | 1016.9 |
| 20260502040949 | 36 | 66 | 0.0 | 0.0 | 0.00 | 0.00 | 0.00 | 81 | 1016.6 |
| 20260502040830 | 36 | 60 | 0.0 | 0.0 | 0.00 | 0.00 | 0.00 | 81 | 1016.9 |
| 20260502040725 | 36 | 62 | 0.0 | 0.0 | 0.00 | 0.00 | 0.00 | 80 | 1016.9 |
| 20260502040618 | 36 | 60 | 0.0 | 0.0 | 0.00 | 0.00 | 0.00 | 80 | 1016.6 |
| 20260502040514 | 36 | 58 | 0.0 | 0.0 | 0.00 | 0.00 | 0.00 | 80 | 1016.9 |
| 20260502040407 | 36 | 57 | 0.0 | 0.0 | 0.00 | 0.00 | 0.00 | 80 | 1016.9 |
| 20260502040302 | 36 | 56 | 0.0 | 0.0 | 0.00 | 0.00 | 0.00 | 80 | 1016.9 |
| 20260502040156 | 36 | 77 | 0.0 | 0.0 | 0.00 | 0.00 | 0.00 | 80 | 1016.6 |
| 20260502040109 | 36 | 76 | 0.0 | 0.0 | 0.00 | 0.00 | 0.00 | 80 | 1016.6 |
| 20260502035945 | 36 | 82 | 0.0 | 0.0 | 0.00 | 0.00 | 0.00 | 80 | 1016.9 |
| 20260502035839 | 36 | 87 | 0.0 | 0.0 | 0.00 | 0.00 | 0.00 | 80 | 1016.6 |
| 20260502035734 | 36 | 86 | 0.0 | 0.0 | 0.00 | 0.00 | 0.00 | 80 | 1016.6 |
| 20260502035628 | 36 | 78 | 0.0 | 0.0 | 0.00 | 0.00 | 0.00 | 80 | 1016.9 |
| 20260502035602 | 36 | 13 | 0.0 | 0.0 | 0.00 | 0.00 | 0.00 | 80 | 1016.9 |
| 20260502035522 | 36 | 12 | 0.0 | 0.0 | 0.00 | 0.00 | 0.00 | 80 | 1016.9 |
| 20260502035417 | 36 | 37 | 0.0 | 0.0 | 0.00 | 0.00 | 0.00 | 80 | 1016.6 |
| 20260502035311 | 36 | 99 | 0.0 | 0.0 | 0.00 | 0.00 | 0.00 | 80 | 1016.6 |
| 20260502035205 | 36 | 99 | 0.0 | 0.0 | 0.00 | 0.00 | 0.00 | 79 | 1016.6 |
| 20260502035059 | 36 | 100 | 0.0 | 0.0 | 0.00 | 0.00 | 0.00 | 79 | 1016.6 |
| 20260502034953 | 36 | 97 | 0.0 | 0.0 | 0.00 | 0.00 | 0.00 | 79 | 1016.6 |
| 20260502034848 | 36 | 97 | 0.0 | 1.0 | 0.00 | 0.00 | 0.00 | 79 | 1016.6 |
| 20260502034742 | 36 | 100 | 0.0 | 2.0 | 0.00 | 0.00 | 0.00 | 79 | 1016.6 |
| 20260502034636 | 36 | 83 | 0.0 | 2.0 | 0.00 | 0.00 | 0.00 | 80 | 1016.6 |
| 20260502034549 | 36 | 47 | 0.0 | 2.0 | 0.00 | 0.00 | 0.00 | 79 | 1016.9 |
| 20260502034531 | 36 | 44 | 0.0 | 2.0 | 0.00 | 0.00 | 0.00 | 79 | 1016.6 |
| 20260502034426 | 36 | 45 | 0.0 | 2.0 | 0.00 | 0.00 | 0.00 | 79 | 1016.6 |
| 20260502034320 | 36 | 33 | 0.0 | 2.0 | 0.00 | 0.00 | 0.00 | 79 | 1016.9 |
| 20260502034217 | 36 | 72 | 0.0 | 2.0 | 0.00 | 0.00 | 0.00 | 79 | 1016.6 |
| 20260502034108 | 36 | 131 | 0.0 | 2.0 | 0.00 | 0.00 | 0.00 | 78 | 1016.9 |
| 20260502034042 | 36 | 131 | 0.0 | 2.0 | 0.00 | 0.00 | 0.00 | 78 | 1016.9 |
| 20260502034004 | 36 | 143 | 1.0 | 2.0 | 0.00 | 0.00 | 0.00 | 79 | 1016.6 |
| 20260502033857 | 37 | 114 | 1.0 | 2.0 | 0.00 | 0.00 | 0.00 | 78 | 1016.6 |
| 20260502033811 | 37 | 104 | 1.0 | 2.0 | 0.00 | 0.00 | 0.00 | 79 | 1016.6 |
| 20260502033802 | 36 | 94 | 0.0 | 2.0 | 0.00 | 0.00 | 0.00 | 79 | 1016.6 |
| 20260502033752 | 36 | 92 | 0.0 | 2.0 | 0.00 | 0.00 | 0.00 | 78 | 1016.6 |
| 20260502033433 | 37 | 95 | 1.0 | 2.0 | 0.00 | 0.00 | 0.00 | 78 | 1016.3 |
| 20260502033327 | 37 | 72 | 1.0 | 1.0 | 0.00 | 0.00 | 0.00 | 79 | 1016.6 |
| 20260502033258 | 37 | 142 | 1.0 | 1.0 | 0.00 | 0.00 | 0.00 | 79 | 1016.6 |
| 20260502033254 | 37 | 119 | 0.0 | 1.0 | 0.00 | 0.00 | 0.00 | 79 | 1016.6 |
| 20260502033246 | 37 | 140 | 0.0 | 1.0 | 0.00 | 0.00 | 0.00 | 78 | 1016.6 |
| 20260502033010 | 37 | 134 | 1.0 | 1.0 | 0.00 | 0.00 | 0.00 | 79 | 1016.6 |
| 20260502032905 | 37 | 122 | 0.0 | 0.0 | 0.00 | 0.00 | 0.00 | 79 | 1016.3 |
| 20260502032801 | 37 | 123 | 0.0 | 0.0 | 0.00 | 0.00 | 0.00 | 79 | 1016.6 |
| 20260502032747 | 37 | 122 | 0.0 | 2.0 | 0.00 | 0.00 | 0.00 | 78 | 1016.3 |
| 20260502032739 | 37 | 122 | 0.0 | 2.0 | 0.00 | 0.00 | 0.00 | 78 | 1016.6 |
| 20260502032442 | 37 | 122 | 0.0 | 2.0 | 0.00 | 0.00 | 0.00 | 78 | 1016.6 |
| 20260502032336 | 37 | 122 | 0.0 | 2.0 | 0.00 | 0.00 | 0.00 | 78 | 1016.6 |
| 20260502032249 | 37 | 130 | 0.0 | 2.0 | 0.00 | 0.00 | 0.00 | 78 | 1016.6 |
| 20260502032241 | 37 | 134 | 0.0 | 2.0 | 0.00 | 0.00 | 0.00 | 78 | 1016.3 |
| 20260502032231 | 37 | 139 | 0.0 | 2.0 | 0.00 | 0.00 | 0.00 | 78 | 1016.3 |
| 20260502031914 | 37 | 139 | 0.0 | 2.0 | 0.00 | 0.00 | 0.00 | 78 | 1016.3 |
| 20260502031809 | 37 | 143 | 1.0 | 2.0 | 0.00 | 0.00 | 0.00 | 78 | 1016.6 |
| 20260502031743 | 37 | 108 | 0.0 | 1.0 | 0.00 | 0.00 | 0.00 | 78 | 1016.3 |
| 20260502031738 | 37 | 118 | 2.0 | 2.0 | 0.00 | 0.00 | 0.00 | 78 | 1016.6 |
| 20260502031730 | 37 | 120 | 1.0 | 2.0 | 0.00 | 0.00 | 0.00 | 78 | 1016.6 |
| 20260502031451 | 37 | 99 | 0.0 | 1.0 | 0.00 | 0.00 | 0.00 | 78 | 1016.3 |
| 20260502031346 | 37 | 91 | 0.0 | 1.0 | 0.00 | 0.00 | 0.00 | 78 | 1016.6 |
| 20260502031241 | 37 | 100 | 0.0 | 0.0 | 0.00 | 0.00 | 0.00 | 78 | 1016.6 |
| 20260502031134 | 37 | 95 | 0.0 | 0.0 | 0.00 | 0.00 | 0.00 | 78 | 1016.6 |
| 20260502031042 | 37 | 95 | 0.0 | 0.0 | 0.00 | 0.00 | 0.00 | 79 | 1016.6 |
| 20260502031002 | 37 | 95 | 0.0 | 1.0 | 0.00 | 0.00 | 0.00 | 79 | 1016.6 |
| 20260502030923 | 37 | 95 | 0.0 | 1.0 | 0.00 | 0.00 | 0.00 | 78 | 1016.6 |
| 20260502030818 | 37 | 95 | 0.0 | 1.0 | 0.00 | 0.00 | 0.00 | 78 | 1016.6 |
| 20260502030712 | 37 | 86 | 0.0 | 1.0 | 0.00 | 0.00 | 0.00 | 79 | 1016.6 |
| 20260502030606 | 37 | 86 | 0.0 | 1.0 | 0.00 | 0.00 | 0.00 | 79 | 1016.6 |
| 20260502030513 | 37 | 97 | 0.0 | 1.0 | 0.00 | 0.00 | 0.00 | 79 | 1016.6 |
| 20260502030355 | 37 | 92 | 0.0 | 1.0 | 0.00 | 0.00 | 0.00 | 78 | 1016.6 |
| 20260502030250 | 37 | 80 | 0.0 | 1.0 | 0.00 | 0.00 | 0.00 | 79 | 1016.6 |
| 20260502030144 | 37 | 78 | 0.0 | 1.0 | 0.00 | 0.00 | 0.00 | 78 | 1016.6 |
| 20260502030038 | 37 | 78 | 0.0 | 1.0 | 0.00 | 0.00 | 0.00 | 78 | 1016.6 |
| 20260502025950 | 37 | 83 | 0.0 | 1.0 | 0.00 | 0.00 | 0.00 | 78 | 1016.3 |
| 20260502025933 | 37 | 95 | 0.0 | 1.0 | 0.00 | 0.00 | 0.00 | 78 | 1016.3 |
| 20260502025827 | 37 | 97 | 0.0 | 1.0 | 0.00 | 0.00 | 0.00 | 78 | 1016.6 |
| 20260502025722 | 37 | 99 | 0.0 | 1.0 | 0.00 | 0.00 | 0.00 | 79 | 1016.6 |
| 20260502025616 | 37 | 96 | 0.0 | 1.0 | 0.00 | 0.00 | 0.00 | 79 | 1016.6 |
| 20260502025510 | 37 | 97 | 0.0 | 1.0 | 0.00 | 0.00 | 0.00 | 78 | 1016.6 |
| 20260502025444 | 37 | 99 | 0.0 | 1.0 | 0.00 | 0.00 | 0.00 | 78 | 1016.6 |
| 20260502025405 | 37 | 99 | 0.0 | 1.0 | 0.00 | 0.00 | 0.00 | 78 | 1016.6 |
| 20260502025259 | 37 | 92 | 0.0 | 1.0 | 0.00 | 0.00 | 0.00 | 78 | 1016.9 |
| 20260502025153 | 37 | 98 | 0.0 | 1.0 | 0.00 | 0.00 | 0.00 | 78 | 1016.3 |
| 20260502025048 | 37 | 67 | 0.0 | 1.0 | 0.00 | 0.00 | 0.00 | 78 | 1016.9 |
| 20260502024941 | 37 | 56 | 0.0 | 1.0 | 0.00 | 0.00 | 0.00 | 78 | 1016.6 |
| 20260502024836 | 37 | 54 | 0.0 | 1.0 | 0.00 | 0.00 | 0.00 | 77 | 1016.6 |
| 20260502024731 | 37 | 47 | 0.0 | 1.0 | 0.00 | 0.00 | 0.00 | 77 | 1016.6 |
| 20260502024625 | 37 | 88 | 1.0 | 1.0 | 0.00 | 0.00 | 0.00 | 78 | 1016.6 |
| 20260502024519 | 37 | 67 | 0.0 | 2.0 | 0.00 | 0.00 | 0.00 | 78 | 1016.9 |
| 20260502024430 | 37 | 82 | 0.0 | 2.0 | 0.00 | 0.00 | 0.00 | 77 | 1016.9 |
| 20260502024413 | 37 | 82 | 0.0 | 2.0 | 0.00 | 0.00 | 0.00 | 77 | 1016.6 |
| 20260502024307 | 37 | 83 | 0.0 | 3.0 | 0.00 | 0.00 | 0.00 | 77 | 1016.9 |
| 20260502024202 | 37 | 83 | 0.0 | 3.0 | 0.00 | 0.00 | 0.00 | 77 | 1016.6 |
| 20260502024057 | 37 | 78 | 0.0 | 3.0 | 0.00 | 0.00 | 0.00 | 77 | 1016.6 |
| 20260502023951 | 37 | 82 | 0.0 | 3.0 | 0.00 | 0.00 | 0.00 | 77 | 1016.6 |
| 20260502023925 | 37 | 81 | 0.0 | 3.0 | 0.00 | 0.00 | 0.00 | 77 | 1016.6 |
| 20260502023846 | 37 | 69 | 0.0 | 3.0 | 0.00 | 0.00 | 0.00 | 77 | 1016.6 |
| 20260502023740 | 37 | 60 | 0.0 | 3.0 | 0.00 | 0.00 | 0.00 | 77 | 1016.6 |
| 20260502023634 | 37 | 67 | 0.0 | 3.0 | 0.00 | 0.00 | 0.00 | 77 | 1016.6 |
| 20260502023528 | 37 | 42 | 2.0 | 3.0 | 0.00 | 0.00 | 0.00 | 77 | 1016.6 |
| 20260502023422 | 37 | 70 | 1.0 | 3.0 | 0.00 | 0.00 | 0.00 | 77 | 1016.6 |
| 20260502023317 | 37 | 40 | 0.0 | 3.0 | 0.00 | 0.00 | 0.00 | 77 | 1016.6 |
| 20260502023210 | 37 | 40 | 0.0 | 3.0 | 0.00 | 0.00 | 0.00 | 77 | 1016.6 |
| 20260502023105 | 37 | 45 | 0.0 | 3.0 | 0.00 | 0.00 | 0.00 | 77 | 1016.6 |
| 20260502023000 | 38 | 56 | 2.0 | 3.0 | 0.00 | 0.00 | 0.00 | 77 | 1016.6 |
| 20260502022911 | 38 | 9 | 0.0 | 3.0 | 0.00 | 0.00 | 0.00 | 77 | 1016.6 |
| 20260502022854 | 38 | 40 | 1.0 | 3.0 | 0.00 | 0.00 | 0.00 | 77 | 1016.6 |
| 20260502022748 | 38 | 63 | 2.0 | 3.0 | 0.00 | 0.00 | 0.00 | 76 | 1016.6 |
| 20260502022643 | 38 | 24 | 1.0 | 3.0 | 0.00 | 0.00 | 0.00 | 76 | 1016.6 |
| 20260502022535 | 38 | 54 | 2.0 | 3.0 | 0.00 | 0.00 | 0.00 | 76 | 1016.6 |
| 20260502022429 | 38 | 38 | 2.0 | 3.0 | 0.00 | 0.00 | 0.00 | 76 | 1016.6 |
| 20260502022402 | 38 | 43 | 1.0 | 3.0 | 0.00 | 0.00 | 0.00 | 76 | 1016.6 |
| 20260502022323 | 38 | 57 | 0.0 | 3.0 | 0.00 | 0.00 | 0.00 | 76 | 1016.6 |
| 20260502022218 | 38 | 22 | 1.0 | 3.0 | 0.00 | 0.00 | 0.00 | 75 | 1016.6 |
| 20260502022113 | 38 | 55 | 1.0 | 4.0 | 0.00 | 0.00 | 0.00 | 75 | 1016.6 |
| 20260502022005 | 38 | 44 | 1.0 | 4.0 | 0.00 | 0.00 | 0.00 | 75 | 1016.6 |
| 20260502021859 | 38 | 51 | 2.0 | 4.0 | 0.00 | 0.00 | 0.00 | 75 | 1016.6 |
| 20260502021754 | 38 | 32 | 0.0 | 4.0 | 0.00 | 0.00 | 0.00 | 75 | 1016.9 |
| 20260502021648 | 38 | 52 | 0.0 | 4.0 | 0.00 | 0.00 | 0.00 | 75 | 1016.6 |
| 20260502021542 | 38 | 41 | 1.0 | 4.0 | 0.00 | 0.00 | 0.00 | 75 | 1016.6 |
| 20260502021436 | 38 | 67 | 1.0 | 4.0 | 0.00 | 0.00 | 0.00 | 74 | 1016.3 |
| 20260502021347 | 38 | 46 | 1.0 | 4.0 | 0.00 | 0.00 | 0.00 | 74 | 1016.3 |
| 20260502021330 | 38 | 46 | 1.0 | 4.0 | 0.00 | 0.00 | 0.00 | 74 | 1016.6 |
| 20260502021224 | 38 | 77 | 2.0 | 4.0 | 0.00 | 0.00 | 0.00 | 74 | 1016.6 |
| 20260502021120 | 38 | 68 | 1.0 | 4.0 | 0.00 | 0.00 | 0.00 | 74 | 1016.6 |
| 20260502021014 | 39 | 39 | 2.0 | 4.0 | 0.00 | 0.00 | 0.00 | 74 | 1016.6 |
| 20260502020908 | 39 | 61 | 2.0 | 4.0 | 0.00 | 0.00 | 0.00 | 73 | 1016.6 |
| 20260502020842 | 39 | 61 | 2.0 | 4.0 | 0.00 | 0.00 | 0.00 | 73 | 1016.6 |
| 20260502020803 | 39 | 24 | 3.0 | 4.0 | 0.00 | 0.00 | 0.00 | 74 | 1016.3 |
| 20260502020657 | 39 | 80 | 0.0 | 3.0 | 0.00 | 0.00 | 0.00 | 74 | 1016.3 |
| 20260502020552 | 39 | 61 | 0.0 | 3.0 | 0.00 | 0.00 | 0.00 | 73 | 1016.6 |
| 20260502020446 | 39 | 42 | 1.0 | 4.0 | 0.00 | 0.00 | 0.00 | 73 | 1016.6 |
| 20260502020340 | 39 | 55 | 0.0 | 4.0 | 0.00 | 0.00 | 0.00 | 72 | 1016.3 |
| 20260502020234 | 39 | 40 | 0.0 | 4.0 | 0.00 | 0.00 | 0.00 | 72 | 1016.3 |
| 20260502020130 | 39 | 61 | 0.0 | 4.0 | 0.00 | 0.00 | 0.00 | 72 | 1016.3 |
| 20260502020024 | 39 | 33 | 2.0 | 4.0 | 0.00 | 0.00 | 0.00 | 71 | 1016.3 |
| 20260502015916 | 39 | 65 | 1.0 | 4.0 | 0.00 | 0.00 | 0.00 | 71 | 1016.3 |
| 20260502015828 | 39 | 73 | 1.0 | 4.0 | 0.00 | 0.00 | 0.00 | 71 | 1016.3 |
| 20260502015810 | 39 | 78 | 2.0 | 4.0 | 0.00 | 0.00 | 0.00 | 71 | 1016.3 |
| 20260502015706 | 39 | 59 | 1.0 | 4.0 | 0.00 | 0.00 | 0.00 | 71 | 1016.3 |
| 20260502015559 | 39 | 78 | 0.0 | 4.0 | 0.00 | 0.00 | 0.00 | 71 | 1016.3 |
| 20260502015454 | 39 | 13 | 0.0 | 3.0 | 0.00 | 0.00 | 0.00 | 71 | 1016.3 |
| 20260502015348 | 39 | 41 | 1.0 | 3.0 | 0.00 | 0.00 | 0.00 | 71 | 1015.9 |
| 20260502015322 | 39 | 43 | 1.0 | 3.0 | 0.00 | 0.00 | 0.00 | 71 | 1016.3 |
| 20260502015243 | 39 | 51 | 2.0 | 3.0 | 0.00 | 0.00 | 0.00 | 71 | 1016.3 |
| 20260502015137 | 39 | 59 | 2.0 | 3.0 | 0.00 | 0.00 | 0.00 | 70 | 1016.3 |
| 20260502015032 | 39 | 29 | 2.0 | 3.0 | 0.00 | 0.00 | 0.00 | 70 | 1015.9 |
| 20260502014926 | 39 | 86 | 0.0 | 3.0 | 0.00 | 0.00 | 0.00 | 71 | 1015.9 |
| 20260502014820 | 39 | 66 | 1.0 | 3.0 | 0.00 | 0.00 | 0.00 | 70 | 1015.9 |
| 20260502014714 | 39 | 87 | 0.0 | 3.0 | 0.00 | 0.00 | 0.00 | 70 | 1015.9 |
| 20260502014622 | 39 | 98 | 1.0 | 3.0 | 0.00 | 0.00 | 0.00 | 70 | 1015.9 |
| 20260502014503 | 39 | 73 | 0.0 | 3.0 | 0.00 | 0.00 | 0.00 | 70 | 1015.9 |
| 20260502014357 | 39 | 75 | 0.0 | 3.0 | 0.00 | 0.00 | 0.00 | 70 | 1015.9 |
| 20260502014309 | 39 | 53 | 0.0 | 3.0 | 0.00 | 0.00 | 0.00 | 69 | 1015.9 |
| 20260502014252 | 39 | 37 | 0.0 | 3.0 | 0.00 | 0.00 | 0.00 | 69 | 1015.9 |
| 20260502014146 | 39 | 35 | 2.0 | 3.0 | 0.00 | 0.00 | 0.00 | 69 | 1015.6 |
| 20260502014040 | 40 | 68 | 0.0 | 2.0 | 0.00 | 0.00 | 0.00 | 71 | 1015.9 |
| 20260502013934 | 40 | 88 | 0.0 | 3.0 | 0.00 | 0.00 | 0.00 | 70 | 1015.9 |
| 20260502013829 | 40 | 96 | 0.0 | 3.0 | 0.00 | 0.00 | 0.00 | 70 | 1015.9 |
| 20260502013802 | 40 | 82 | 0.0 | 3.0 | 0.00 | 0.00 | 0.00 | 71 | 1015.9 |
| 20260502013722 | 40 | 93 | 0.0 | 3.0 | 0.00 | 0.00 | 0.00 | 70 | 1015.6 |
| 20260502013630 | 40 | 73 | 0.0 | 3.0 | 0.00 | 0.00 | 0.00 | 70 | 1015.6 |
| 20260502013511 | 40 | 65 | 0.0 | 3.0 | 0.00 | 0.00 | 0.00 | 70 | 1015.6 |
| 20260502013404 | 39 | 57 | 0.0 | 3.0 | 0.00 | 0.00 | 0.00 | 70 | 1015.6 |
| 20260502013259 | 39 | 65 | 0.0 | 3.0 | 0.00 | 0.00 | 0.00 | 70 | 1015.6 |
| 20260502013154 | 40 | 41 | 1.0 | 3.0 | 0.00 | 0.00 | 0.00 | 69 | 1015.6 |
| 20260502013048 | 40 | 56 | 0.0 | 3.0 | 0.00 | 0.00 | 0.00 | 69 | 1015.3 |
| 20260502012942 | 40 | 92 | 1.0 | 3.0 | 0.00 | 0.00 | 0.00 | 69 | 1015.6 |
| 20260502012837 | 40 | 40 | 2.0 | 3.0 | 0.00 | 0.00 | 0.00 | 69 | 1015.6 |
| 20260502012748 | 40 | 67 | 1.0 | 3.0 | 0.00 | 0.00 | 0.00 | 69 | 1015.6 |
| 20260502012730 | 40 | 48 | 1.0 | 3.0 | 0.00 | 0.00 | 0.00 | 69 | 1015.3 |
| 20260502012625 | 40 | 81 | 1.0 | 3.0 | 0.00 | 0.00 | 0.00 | 69 | 1015.6 |
| 20260502012519 | 40 | 30 | 1.0 | 3.0 | 0.00 | 0.00 | 0.00 | 69 | 1015.6 |
| 20260502012414 | 40 | 80 | 1.0 | 3.0 | 0.00 | 0.00 | 0.00 | 69 | 1015.6 |
| 20260502012309 | 40 | 98 | 0.0 | 2.0 | 0.00 | 0.00 | 0.00 | 69 | 1015.6 |
| 20260502012242 | 40 | 74 | 0.0 | 2.0 | 0.00 | 0.00 | 0.00 | 69 | 1015.6 |
| 20260502012203 | 40 | 69 | 0.0 | 2.0 | 0.00 | 0.00 | 0.00 | 69 | 1015.6 |
| 20260502012057 | 40 | 79 | 0.0 | 2.0 | 0.00 | 0.00 | 0.00 | 70 | 1015.6 |
| 20260502011952 | 40 | 61 | 0.0 | 2.0 | 0.00 | 0.00 | 0.00 | 70 | 1015.3 |
| 20260502011847 | 40 | 42 | 0.0 | 2.0 | 0.00 | 0.00 | 0.00 | 70 | 1015.6 |
| 20260502011740 | 40 | 46 | 0.0 | 2.0 | 0.00 | 0.00 | 0.00 | 69 | 1015.3 |
| 20260502011634 | 40 | 53 | 0.0 | 2.0 | 0.00 | 0.00 | 0.00 | 69 | 1015.6 |
| 20260502011529 | 40 | 63 | 0.0 | 2.0 | 0.00 | 0.00 | 0.00 | 69 | 1015.3 |
| 20260502011422 | 41 | 67 | 0.0 | 2.0 | 0.00 | 0.00 | 0.00 | 69 | 1015.6 |
| 20260502011316 | 41 | 76 | 0.0 | 2.0 | 0.00 | 0.00 | 0.00 | 70 | 1015.3 |
| 20260502011228 | 41 | 97 | 0.0 | 2.0 | 0.00 | 0.00 | 0.00 | 69 | 1015.3 |
| 20260502011211 | 41 | 84 | 0.0 | 2.0 | 0.00 | 0.00 | 0.00 | 69 | 1015.3 |
| 20260502011105 | 41 | 36 | 0.0 | 1.0 | 0.00 | 0.00 | 0.00 | 69 | 1015.3 |
| 20260502010958 | 41 | 26 | 0.0 | 1.0 | 0.00 | 0.00 | 0.00 | 70 | 1015.3 |
| 20260502010854 | 41 | 24 | 0.0 | 1.0 | 0.00 | 0.00 | 0.00 | 68 | 1015.6 |
| 20260502010747 | 42 | 37 | 0.0 | 1.0 | 0.00 | 0.00 | 0.00 | 68 | 1015.3 |
| 20260502010721 | 42 | 38 | 0.0 | 1.0 | 0.00 | 0.00 | 0.00 | 68 | 1015.6 |
| 20260502010642 | 42 | 37 | 1.0 | 1.0 | 0.00 | 0.00 | 0.00 | 68 | 1015.6 |
| 20260502010536 | 42 | 55 | 0.0 | 1.0 | 0.00 | 0.00 | 0.00 | 69 | 1015.3 |
| 20260502010431 | 42 | 44 | 0.0 | 3.0 | 0.00 | 0.00 | 0.00 | 69 | 1015.3 |
| 20260502010325 | 42 | 80 | 0.0 | 3.0 | 0.00 | 0.00 | 0.00 | 69 | 1015.3 |
| 20260502010220 | 42 | 67 | 0.0 | 3.0 | 0.00 | 0.00 | 0.00 | 69 | 1015.3 |
| 20260502010114 | 42 | 66 | 0.0 | 3.0 | 0.00 | 0.00 | 0.00 | 69 | 1015.6 |
| 20260502010008 | 42 | 45 | 0.0 | 3.0 | 0.00 | 0.00 | 0.00 | 69 | 1015.3 |
| 20260502005903 | 42 | 44 | 0.0 | 3.0 | 0.00 | 0.00 | 0.00 | 68 | 1015.3 |
| 20260502005757 | 42 | 39 | 0.0 | 3.0 | 0.00 | 0.00 | 0.00 | 68 | 1015.3 |
| 20260502005733 | 43 | 349 | 0.0 | 3.0 | 0.00 | 0.00 | 0.00 | 67 | 1015.3 |
| 20260502005729 | 43 | 330 | 2.0 | 6.0 | 0.00 | 0.00 | 0.00 | 67 | 1015.3 |
| 20260502005723 | 42 | 39 | 0.0 | 3.0 | 0.00 | 0.00 | 0.00 | 68 | 1015.3 |
| 20260502005719 | 42 | 39 | 0.0 | 3.0 | 0.00 | 0.00 | 0.00 | 67 | 1015.3 |
| 20260502005710 | 42 | 44 | 0.0 | 3.0 | 0.00 | 0.00 | 0.00 | 67 | 1015.3 |
| 20260502005449 | 42 | 348 | 0.0 | 2.0 | 0.00 | 0.00 | 0.00 | 67 | 1015.3 |
| 20260502005445 | 42 | 3 | 2.0 | 3.0 | 0.00 | 0.00 | 0.00 | 67 | 1015.3 |
| 20260502005437 | 42 | 6 | 0.0 | 2.0 | 0.00 | 0.00 | 0.00 | 67 | 1015.3 |
| 20260502005428 | 42 | 9 | 0.0 | 2.0 | 0.00 | 0.00 | 0.00 | 67 | 1015.3 |
| 20260502005206 | 42 | 350 | 0.0 | 4.0 | 0.00 | 0.00 | 0.00 | 67 | 1014.9 |
| 20260502005158 | 42 | 27 | 1.0 | 4.0 | 0.00 | 0.00 | 0.00 | 68 | 1015.3 |
| 20260502004934 | 42 | 356 | 1.0 | 4.0 | 0.00 | 0.00 | 0.00 | 68 | 1015.3 |
| 20260502004925 | 42 | 2 | 0.0 | 4.0 | 0.00 | 0.00 | 0.00 | 68 | 1015.3 |
| 20260502004915 | 42 | 359 | 0.0 | 4.0 | 0.00 | 0.00 | 0.00 | 67 | 1015.3 |
| 20260502004654 | 43 | 341 | 1.0 | 4.0 | 0.00 | 0.00 | 0.00 | 68 | 1015.3 |
| 20260502004646 | 43 | 353 | 0.0 | 4.0 | 0.00 | 0.00 | 0.00 | 68 | 1015.3 |
| 20260502004426 | 43 | 65 | 1.0 | 4.0 | 0.00 | 0.00 | 0.00 | 67 | 1015.3 |
| 20260502004422 | 42 | 0 | 0.0 | 4.0 | 0.00 | 0.00 | 0.00 | 67 | 1015.3 |
| 20260502004414 | 43 | 349 | 2.0 | 6.0 | 0.00 | 0.00 | 0.00 | 67 | 1015.3 |
| 20260502004152 | 43 | 338 | 0.0 | 6.0 | 0.00 | 0.00 | 0.00 | 68 | 1015.3 |
| 20260502004143 | 43 | 330 | 0.0 | 6.0 | 0.00 | 0.00 | 0.00 | 67 | 1014.9 |
| 20260502003922 | 43 | 337 | 0.0 | 6.0 | 0.00 | 0.00 | 0.00 | 68 | 1015.3 |
| 20260502003914 | 43 | 345 | 0.0 | 6.0 | 0.00 | 0.00 | 0.00 | 67 | 1015.3 |
| 20260502003905 | 43 | 331 | 1.0 | 6.0 | 0.00 | 0.00 | 0.00 | 67 | 1015.3 |
| 20260502003644 | 43 | 332 | 0.0 | 6.0 | 0.00 | 0.00 | 0.00 | 67 | 1015.3 |
| 20260502003640 | 43 | 337 | 2.0 | 6.0 | 0.00 | 0.00 | 0.00 | 67 | 1015.3 |
| 20260502003631 | 43 | 325 | 2.0 | 6.0 | 0.00 | 0.00 | 0.00 | 67 | 1015.3 |
| 20260502003412 | 43 | 342 | 3.0 | 6.0 | 0.00 | 0.00 | 0.00 | 66 | 1015.3 |
| 20260502003403 | 43 | 62 | 1.0 | 2.0 | 0.00 | 0.00 | 0.00 | 67 | 1014.9 |
| 20260502003353 | 43 | 349 | 0.0 | 3.0 | 0.00 | 0.00 | 0.00 | 67 | 1015.3 |
| 20260502003132 | 43 | 310 | 0.0 | 4.0 | 0.00 | 0.00 | 0.00 | 67 | 1014.9 |
| 20260502003124 | 43 | 326 | 0.0 | 4.0 | 0.00 | 0.00 | 0.00 | 67 | 1015.3 |
| 20260502002905 | 43 | 342 | 3.0 | 4.0 | 0.00 | 0.00 | 0.00 | 67 | 1015.3 |
| 20260502002901 | 43 | 325 | 1.0 | 4.0 | 0.00 | 0.00 | 0.00 | 67 | 1014.9 |
| 20260502002852 | 43 | 1 | 0.0 | 4.0 | 0.00 | 0.00 | 0.00 | 67 | 1015.3 |
| 20260502002630 | 43 | 1 | 1.0 | 4.0 | 0.00 | 0.00 | 0.00 | 67 | 1015.3 |
| 20260502002622 | 43 | 324 | 0.0 | 4.0 | 0.00 | 0.00 | 0.00 | 67 | 1014.9 |
| 20260502002402 | 43 | 331 | 2.0 | 4.0 | 0.00 | 0.00 | 0.00 | 67 | 1015.3 |
| 20260502002353 | 43 | 335 | 1.0 | 4.0 | 0.00 | 0.00 | 0.00 | 67 | 1015.3 |
| 20260502002345 | 43 | 339 | 3.0 | 4.0 | 0.00 | 0.00 | 0.00 | 67 | 1015.3 |
| 20260502002044 | 43 | 311 | 0.0 | 4.0 | 0.00 | 0.00 | 0.00 | 67 | 1015.3 |
| 20260502001939 | 43 | 306 | 0.0 | 4.0 | 0.00 | 0.00 | 0.00 | 67 | 1015.3 |
| 20260502001855 | 43 | 309 | 0.0 | 4.0 | 0.00 | 0.00 | 0.00 | 66 | 1014.9 |
| 20260502001847 | 43 | 300 | 0.0 | 4.0 | 0.00 | 0.00 | 0.00 | 66 | 1014.9 |
| 20260502001837 | 43 | 45 | 2.0 | 4.0 | 0.00 | 0.00 | 0.00 | 66 | 1014.9 |
| 20260502001517 | 43 | 309 | 2.0 | 4.0 | 0.00 | 0.00 | 0.00 | 67 | 1015.3 |
| 20260502001411 | 43 | 352 | 0.0 | 4.0 | 0.00 | 0.00 | 0.00 | 67 | 1015.3 |
| 20260502001305 | 43 | 308 | 0.0 | 4.0 | 0.00 | 0.00 | 0.00 | 66 | 1015.3 |
| 20260502001159 | 43 | 319 | 0.0 | 6.0 | 0.00 | 0.00 | 0.00 | 66 | 1015.3 |
| 20260502001109 | 43 | 326 | 1.0 | 6.0 | 0.00 | 0.00 | 0.00 | 66 | 1015.3 |
| 20260502001105 | 43 | 328 | 1.0 | 6.0 | 0.00 | 0.00 | 0.00 | 66 | 1015.3 |
| 20260502000947 | 43 | 324 | 1.0 | 6.0 | 0.00 | 0.00 | 0.00 | 66 | 1014.9 |
| 20260502000841 | 43 | 327 | 2.0 | 6.0 | 0.00 | 0.00 | 0.00 | 66 | 1014.9 |
| 20260502000735 | 43 | 310 | 0.0 | 6.0 | 0.00 | 0.00 | 0.00 | 66 | 1014.9 |
| 20260502000629 | 43 | 9 | 1.0 | 6.0 | 0.00 | 0.00 | 0.00 | 66 | 1014.9 |
| 20260502000602 | 43 | 31 | 3.0 | 6.0 | 0.00 | 0.00 | 0.00 | 65 | 1014.9 |
| 20260502000524 | 43 | 344 | 4.0 | 6.0 | 0.00 | 0.00 | 0.00 | 66 | 1014.9 |
| 20260502000418 | 43 | 1 | 0.0 | 6.0 | 0.00 | 0.00 | 0.00 | 66 | 1014.9 |
| 20260502000325 | 43 | 29 | 1.0 | 6.0 | 0.00 | 0.00 | 0.00 | 66 | 1014.9 |
| 20260502000207 | 43 | 305 | 2.0 | 4.0 | 0.00 | 0.00 | 0.00 | 66 | 1014.9 |
| 20260502000101 | 44 | 308 | 1.0 | 4.0 | 0.00 | 0.00 | 0.00 | 65 | 1014.9 |
| 20260501235955 | 44 | 304 | 2.0 | 8.0 | 0.00 | 0.00 | 0.00 | 66 | 1014.9 |
| 20260501235849 | 44 | 304 | 0.0 | 8.0 | 0.00 | 0.00 | 0.00 | 66 | 1014.9 |
| 20260501235743 | 44 | 336 | 0.0 | 8.0 | 0.00 | 0.00 | 0.00 | 66 | 1014.9 |
| 20260501235637 | 44 | 0 | 0.0 | 8.0 | 0.00 | 0.00 | 0.00 | 66 | 1014.9 |
| 20260501235549 | 44 | 320 | 1.0 | 8.0 | 0.00 | 0.00 | 0.00 | 66 | 1014.9 |
| 20260501235532 | 44 | 336 | 2.0 | 8.0 | 0.00 | 0.00 | 0.00 | 66 | 1014.9 |
| 20260501235426 | 44 | 27 | 0.0 | 8.0 | 0.00 | 0.00 | 0.00 | 65 | 1014.9 |
| 20260501235321 | 44 | 326 | 2.0 | 8.0 | 0.00 | 0.00 | 0.00 | 66 | 1014.9 |
| 20260501235215 | 44 | 324 | 2.0 | 8.0 | 0.00 | 0.00 | 0.00 | 66 | 1014.6 |
| 20260501235109 | 44 | 339 | 3.0 | 8.0 | 0.00 | 0.00 | 0.00 | 65 | 1014.9 |
| 20260501235043 | 44 | 329 | 7.0 | 8.0 | 0.00 | 0.00 | 0.00 | 65 | 1014.9 |
| 20260501235004 | 44 | 328 | 1.0 | 4.0 | 0.00 | 0.00 | 0.00 | 65 | 1014.6 |
| 20260501234858 | 44 | 341 | 2.0 | 4.0 | 0.00 | 0.00 | 0.00 | 65 | 1014.9 |
| 20260501234752 | 44 | 332 | 3.0 | 4.0 | 0.00 | 0.00 | 0.00 | 65 | 1014.9 |
| 20260501234646 | 44 | 339 | 2.0 | 3.0 | 0.00 | 0.00 | 0.00 | 66 | 1014.9 |
| 20260501234540 | 44 | 319 | 1.0 | 3.0 | 0.00 | 0.00 | 0.00 | 66 | 1014.6 |
| 20260501234434 | 44 | 322 | 0.0 | 3.0 | 0.00 | 0.00 | 0.00 | 65 | 1014.9 |
| 20260501234330 | 44 | 320 | 1.0 | 3.0 | 0.00 | 0.00 | 0.00 | 65 | 1014.9 |
| 20260501234223 | 44 | 324 | 1.0 | 3.0 | 0.00 | 0.00 | 0.00 | 65 | 1014.9 |
| 20260501234117 | 44 | 337 | 1.0 | 3.0 | 0.00 | 0.00 | 0.00 | 65 | 1014.9 |
| 20260501234030 | 44 | 322 | 0.0 | 3.0 | 0.00 | 0.00 | 0.00 | 65 | 1014.9 |
| 20260501234012 | 44 | 318 | 0.0 | 3.0 | 0.00 | 0.00 | 0.00 | 65 | 1014.6 |
| 20260501233907 | 44 | 320 | 3.0 | 4.0 | 0.00 | 0.00 | 0.00 | 65 | 1014.9 |
| 20260501233801 | 44 | 358 | 1.0 | 4.0 | 0.00 | 0.00 | 0.00 | 66 | 1014.6 |
| 20260501233655 | 44 | 45 | 0.0 | 4.0 | 0.00 | 0.00 | 0.00 | 65 | 1014.9 |
| 20260501233520 | 44 | 46 | 0.0 | 4.0 | 0.00 | 0.00 | 0.00 | 65 | 1014.9 |
| 20260501233441 | 44 | 21 | 0.0 | 4.0 | 0.00 | 0.00 | 0.00 | 65 | 1014.9 |
| 20260501233337 | 44 | 1 | 0.0 | 4.0 | 0.00 | 0.00 | 0.00 | 65 | 1014.6 |
| 20260501233231 | 44 | 3 | 0.0 | 4.0 | 0.00 | 0.00 | 0.00 | 65 | 1014.9 |
| 20260501233125 | 44 | 334 | 3.0 | 4.0 | 0.00 | 0.00 | 0.00 | 64 | 1014.6 |
| 20260501233019 | 44 | 21 | 0.0 | 4.0 | 0.00 | 0.00 | 0.00 | 64 | 1014.6 |
| 20260501232913 | 44 | 15 | 2.0 | 4.0 | 0.00 | 0.00 | 0.00 | 65 | 1014.6 |